GFSNE_sfc_thetae_000.txt.gz
Theta_e
328 328 326 324 322 321 319 319 314 306 307 313 314 320 323 325 330 334 339 343 341 339 337 337 338 342 345 347 348 350 351 353 352 352 352 354 357 359
328 328 326 323 322 321 319 316 315 313 308 312 314 318 320 323 326 331 336 341 342 339 337 335 336 339 341 344 345 345 347 348 348 349 348 348 350 353
327 326 326 324 320 320 319 316 315 314 313 313 314 317 317 318 321 325 331 336 340 338 337 335 333 335 337 340 340 342 343 344 344 345 346 347 347 348
326 324 324 326 320 320 318 316 315 315 315 312 315 315 316 317 319 322 326 333 337 340 336 334 333 332 333 334 336 336 337 338 339 339 341 343 344 344
326 323 323 323 320 318 318 317 317 318 316 316 316 316 316 317 318 321 322 325 334 338 335 333 333 332 330 329 330 330 329 329 330 331 333 335 338 341
325 324 324 322 321 319 318 318 317 315 314 315 316 315 314 316 318 317 317 322 325 335 339 337 336 334 331 328 328 329 325 323 324 324 326 327 330 333
325 325 324 325 328 324 321 319 316 315 316 317 315 313 313 314 314 317 317 319 321 326 332 337 337 336 334 330 333 332 326 324 322 321 322 322 323 325
320 321 321 327 327 328 327 327 323 315 315 315 314 313 314 315 317 316 316 315 314 323 329 334 336 333 334 336 334 331 327 325 323 321 320 319 320 321
317 318 320 324 326 322 323 324 323 323 323 316 314 315 315 317 317 316 316 316 316 321 324 327 337 335 337 338 331 328 326 324 323 321 321 319 318 317
319 319 318 319 319 319 317 314 314 315 316 317 316 318 318 318 318 317 317 317 318 321 325 322 333 336 339 341 331 329 325 323 322 320 319 316 314 312
315 317 318 317 317 316 313 311 311 313 318 318 318 318 318 318 319 318 316 315 313 316 323 325 331 333 336 338 339 329 323 321 320 319 318 316 312 310
315 316 317 314 312 311 310 309 312 314 313 314 315 316 318 318 319 320 317 315 315 316 322 327 332 334 327 335 339 332 329 319 317 316 315 313 309 319
311 310 311 310 307 307 307 306 309 311 313 314 314 315 316 316 317 319 319 319 316 319 329 332 332 331 331 326 329 328 328 320 321 316 312 309 308 319
309 309 308 306 306 306 307 308 308 311 312 311 311 312 313 314 315 317 320 322 322 320 328 332 331 332 329 327 326 329 326 326 325 322 320 310 309 312
308 307 308 304 306 308 309 310 311 310 309 308 307 309 312 314 315 317 320 321 323 323 326 327 333 331 331 328 326 330 327 327 329 327 325 320 319 319
305 301 307 309 308 308 306 307 308 309 308 307 308 310 312 312 312 316 316 317 321 321 325 327 334 332 328 328 327 326 329 327 328 329 328 327 328 327
299 305 306 306 305 301 301 302 305 305 303 305 307 307 308 308 311 314 316 316 314 314 318 329 329 324 320 326 324 324 327 332 332 331 328 326 327 328
301 301 300 299 298 297 296 297 299 301 300 303 305 306 306 307 308 312 313 313 313 314 315 317 323 322 321 318 318 316 327 326 333 333 332 328 328 329
298 295 294 293 293 292 292 293 294 298 298 301 303 304 306 306 307 308 309 310 311 314 314 316 315 322 322 315 317 313 317 326 332 332 333 332 331 331
293 292 292 290 289 289 290 291 294 296 298 297 299 299 300 305 304 304 306 306 307 311 313 314 315 314 317 313 313 316 306 317 319 329 333 333 325 322
291 290 291 290 289 289 290 291 292 292 295 294 295 296 297 300 302 303 304 303 304 307 313 313 315 315 318 318 315 315 319 310 311 314 326 328 327 327
293 292 292 291 290 290 288 287 290 290 291 291 292 293 295 295 297 301 302 302 303 305 309 316 318 316 315 313 312 313 315 318 316 313 313 312 322 322
294 293 290 290 288 285 284 285 286 288 288 288 290 291 293 293 294 296 298 302 302 304 306 308 312 314 315 313 312 313 313 315 316 315 316 313 313 312

GFSNE_sfc_thetae_003.txt.gz
Theta_e
326 326 325 324 321 320 318 316 309 302 303 309 312 315 316 318 322 324 324 329 332 335 338 338 339 340 341 344 347 348 350 352 352 352 352 354 355 357
326 326 326 324 321 319 318 315 313 309 307 310 311 313 316 319 322 322 322 328 330 331 335 337 337 338 338 339 341 344 345 347 348 349 349 349 350 352
326 326 326 324 320 319 318 316 313 312 312 311 313 315 315 317 319 320 321 322 325 330 332 335 335 335 336 336 338 340 342 342 343 345 346 346 347 348
325 324 325 326 321 318 317 316 315 313 312 312 313 315 314 319 318 317 319 322 323 327 328 330 334 333 332 331 333 334 335 336 337 339 342 343 344 345
326 323 323 321 320 318 317 317 316 317 314 314 315 319 318 318 316 317 318 319 322 327 327 329 331 332 330 328 327 327 327 328 329 331 332 335 339 341
325 323 322 321 321 319 318 318 317 315 314 313 316 316 315 316 316 314 313 317 317 322 326 327 329 333 333 329 327 327 323 322 323 324 326 328 331 334
323 322 323 324 329 324 320 318 316 315 314 314 315 314 313 312 311 314 314 316 316 319 319 322 325 330 338 332 334 332 326 323 321 321 321 321 323 326
318 317 318 323 323 326 327 327 322 315 314 313 314 312 312 312 315 314 314 312 310 319 318 320 328 330 337 338 333 330 327 324 322 322 321 319 320 321
314 315 317 321 322 319 321 323 323 323 324 317 312 312 311 314 315 313 313 313 312 317 318 316 320 322 331 338 330 327 326 324 322 322 321 319 318 318
316 316 314 314 316 317 316 313 312 312 313 315 314 314 315 316 316 316 315 315 316 318 319 314 319 320 329 339 331 328 325 323 321 320 319 317 314 313
313 313 315 314 316 317 311 309 309 310 316 317 317 317 317 317 318 316 313 312 311 313 319 316 318 318 325 334 340 329 325 321 319 318 318 316 312 310
312 313 314 313 312 310 308 306 308 308 309 311 313 314 316 316 319 318 315 311 311 311 318 315 317 321 322 334 339 335 329 319 316 315 316 314 309 318
310 308 309 311 307 307 306 305 305 307 308 310 311 312 313 314 315 316 316 314 312 314 320 320 318 322 326 324 334 336 331 319 321 314 310 309 308 319
307 307 307 307 305 306 307 308 308 309 307 309 308 308 309 311 313 314 316 317 320 319 323 326 327 325 330 329 327 327 326 326 325 319 318 309 308 312
306 306 306 304 303 306 309 309 308 303 304 304 305 307 309 311 312 314 315 317 320 323 324 324 323 325 331 327 327 327 326 325 326 323 319 315 314 317
304 301 305 307 308 308 304 302 302 302 302 301 304 307 308 309 309 312 312 313 315 317 322 324 323 325 325 330 328 328 328 323 327 326 324 321 322 322
298 305 307 302 300 298 296 297 298 298 298 298 300 303 305 306 307 310 311 311 312 313 315 319 324 321 320 327 326 327 328 326 326 326 326 324 325 326
303 304 299 296 294 293 292 292 293 296 296 297 298 301 301 302 305 307 308 308 309 313 314 315 317 318 318 317 319 319 326 329 330 328 327 325 325 327
301 297 293 291 290 290 289 289 290 292 293 295 295 297 298 299 304 304 305 306 306 310 314 316 315 314 319 313 315 311 316 325 330 329 330 330 328 329
292 291 289 288 287 287 288 288 289 291 292 292 293 294 295 296 299 301 302 303 304 308 313 314 313 313 313 312 312 313 306 318 321 329 330 332 327 320
290 289 288 288 288 288 288 287 288 289 290 289 291 292 293 293 295 298 300 302 303 306 309 312 315 315 317 317 313 314 317 308 310 317 323 327 326 326
291 290 290 290 289 287 284 284 287 287 287 287 288 290 291 292 293 294 296 299 301 304 307 311 313 313 314 311 309 311 314 317 315 313 312 312 322 322
292 290 288 287 284 283 283 284 285 285 285 285 287 288 290 290 292 292 294 297 299 302 303 305 307 309 307 308 308 308 310 312 314 314 315 312 313 312

GFSNE_sfc_thetae_006.txt.gz
Theta_e
333 332 330 331 329 328 327 324 318 311 311 316 318 323 323 324 325 328 328 327 329 329 328 330 331 335 340 342 343 345 348 349 351 351 353 354 356 358
331 331 332 332 330 327 325 324 321 317 313 316 319 321 323 324 326 327 326 326 326 326 327 328 330 331 335 338 340 340 342 344 346 348 349 349 350 352
332 331 331 332 330 327 325 323 321 318 315 320 319 323 323 325 325 326 325 324 325 326 326 327 327 328 330 334 336 337 338 339 340 343 346 347 348 348
331 331 331 330 329 328 324 324 323 321 319 318 323 321 322 326 325 324 323 323 324 325 325 325 325 326 327 328 331 332 332 334 335 338 340 344 345 345
331 330 330 328 327 326 325 324 324 324 321 319 320 323 322 324 323 324 323 323 323 324 324 324 324 325 325 325 326 327 325 327 329 330 332 335 339 342
331 330 329 327 327 327 326 325 325 323 322 319 319 320 321 324 321 318 317 320 320 322 324 323 324 325 325 324 325 327 324 322 322 324 325 327 331 335
330 329 328 327 328 328 327 326 323 322 321 319 318 319 319 319 318 319 316 318 320 321 320 321 322 324 326 327 330 331 327 323 321 320 321 321 324 326
327 326 324 324 325 325 326 327 327 324 322 319 318 317 319 319 319 317 316 314 312 321 319 317 321 320 324 325 326 331 328 325 322 320 320 320 320 322
324 323 323 324 324 322 322 322 324 323 324 324 317 318 318 319 319 317 316 313 314 316 316 313 318 317 323 325 324 324 327 325 323 322 321 319 319 319
323 322 322 321 321 321 321 320 319 318 319 317 318 318 318 318 319 318 315 315 316 316 317 311 317 315 321 325 324 326 326 324 322 321 319 318 316 314
322 320 319 321 318 316 318 317 316 316 316 316 316 316 316 316 317 317 313 312 310 312 316 313 314 315 318 321 326 326 324 322 320 319 319 317 313 312
319 320 316 316 312 311 316 314 313 313 312 313 313 315 316 316 317 319 317 311 310 309 315 312 313 315 314 320 323 329 337 320 317 316 317 315 311 324
317 317 316 311 308 307 306 313 312 312 311 311 310 311 312 313 314 317 317 313 310 310 316 315 314 317 316 320 330 330 336 335 328 320 311 310 308 323
316 314 314 306 305 305 310 308 307 309 310 309 308 308 309 310 312 313 315 314 315 315 316 321 317 318 317 317 320 329 333 332 330 326 322 312 309 313
312 310 307 303 302 307 308 307 307 308 307 305 304 306 308 310 312 312 313 314 315 316 321 322 323 322 322 323 331 326 329 327 329 324 321 319 317 321
307 307 308 308 308 307 306 305 305 306 305 303 302 305 307 308 307 310 309 310 310 312 319 322 324 323 320 322 328 331 329 325 326 325 324 323 321 324
303 310 311 310 304 303 302 301 302 302 301 301 301 302 304 304 303 308 308 308 308 309 313 317 322 324 323 322 327 333 328 326 327 326 324 323 323 325
305 309 306 301 301 300 298 298 298 298 298 298 298 299 300 300 301 304 306 306 306 309 313 315 316 318 321 319 317 317 330 329 327 326 328 326 325 326
306 304 302 299 298 297 296 295 295 296 297 297 297 297 297 299 300 302 302 304 305 308 312 314 314 313 315 312 316 310 311 328 328 326 327 328 327 327
301 300 298 295 295 295 295 294 294 295 296 295 295 295 296 296 297 299 301 301 303 309 310 312 311 312 310 310 312 314 306 317 325 327 328 333 332 321
297 296 295 295 296 296 294 292 292 294 294 293 294 294 295 296 297 298 298 299 302 307 307 308 311 313 314 316 311 311 317 310 313 321 324 329 329 330
297 297 297 297 297 293 291 291 293 293 293 293 293 293 295 296 296 297 298 297 301 303 306 308 311 311 309 309 307 307 309 314 315 312 311 312 323 327
298 298 296 295 291 290 291 292 292 292 292 292 293 293 295 295 297 297 297 298 299 301 303 304 306 308 307 307 306 306 306 308 310 311 311 311 311 311

GFSNE_sfc_thetae_009.txt.gz
Theta_e
342 343 340 338 339 338 337 334 327 320 322 325 324 330 331 331 333 334 334 332 330 329 328 328 329 330 331 332 334 338 342 344 346 349 351 353 356 358
339 341 341 339 339 340 338 336 332 326 322 325 326 330 333 332 333 334 334 330 330 328 327 327 328 329 330 330 331 333 336 340 341 343 346 348 350 353
342 341 341 343 338 339 338 336 332 330 325 326 328 332 333 333 334 335 334 333 330 328 328 327 326 326 327 328 328 329 331 334 338 339 342 345 347 348
339 340 340 338 340 341 336 337 336 334 329 326 331 329 332 334 333 333 332 331 330 329 327 326 325 324 325 325 325 326 326 329 332 335 337 340 343 345
339 339 338 339 338 336 336 333 332 336 332 326 325 327 329 331 330 332 331 331 329 329 325 325 325 325 324 322 322 322 321 322 324 328 330 332 336 339
339 339 339 338 337 336 334 335 334 331 330 328 325 325 326 330 328 325 324 326 325 327 327 326 326 325 324 322 322 322 320 318 319 321 324 325 329 333
339 340 340 338 333 331 330 332 333 329 326 324 323 323 323 323 323 324 322 323 325 326 324 325 325 324 325 324 326 327 324 322 320 319 320 321 322 326
337 339 338 330 330 327 326 327 329 329 327 330 325 322 324 324 324 322 320 318 316 326 324 322 324 322 324 325 324 323 323 322 322 321 319 319 319 321
338 337 334 331 328 331 326 324 324 324 326 328 323 323 323 324 323 320 319 316 315 322 323 320 322 322 322 322 322 321 321 320 320 321 320 319 318 318
337 336 334 332 332 327 327 327 328 328 328 325 325 324 324 323 321 320 317 316 318 321 325 317 320 317 319 321 322 321 321 320 319 319 320 317 315 313
337 334 331 330 322 317 323 324 325 326 321 316 316 315 315 316 317 317 314 315 314 317 321 314 313 313 316 318 323 322 320 318 317 318 320 317 313 311
332 329 318 323 313 313 323 324 322 323 321 320 320 319 319 320 318 321 317 313 314 311 316 311 312 312 310 317 322 326 328 317 315 316 317 316 312 331
328 326 327 312 309 308 308 323 319 316 317 317 317 317 318 319 320 320 321 317 316 311 315 314 312 313 312 312 318 321 328 328 329 324 312 312 309 324
328 327 323 308 305 307 310 309 308 309 315 315 314 314 314 314 315 316 318 319 320 315 316 315 312 312 314 313 317 323 329 331 337 334 333 318 309 313
325 316 307 304 304 305 310 308 306 314 313 311 310 310 311 312 314 314 316 320 321 318 316 316 317 318 319 318 318 323 324 334 337 333 330 323 320 323
312 319 312 309 308 313 311 311 311 311 309 308 307 308 310 309 308 309 311 314 312 316 315 318 318 320 320 321 322 320 328 326 329 329 327 327 328 331
314 319 319 318 317 316 312 311 311 309 307 307 306 306 306 306 306 308 311 313 311 312 310 315 317 320 320 320 321 322 329 329 329 326 326 324 325 329
312 315 316 315 314 313 312 310 309 305 306 305 305 304 303 303 304 306 311 312 312 313 312 313 313 313 318 317 316 313 317 333 332 331 331 327 324 327
313 314 314 313 312 310 307 306 305 304 305 303 303 303 303 303 303 306 307 308 307 310 312 313 312 309 308 307 316 312 312 317 328 326 328 328 329 327
314 313 312 309 307 307 307 305 303 302 301 302 302 303 302 302 302 304 306 303 306 306 312 314 311 308 307 308 310 313 310 313 317 328 327 329 328 323
310 309 308 307 307 307 306 303 300 299 300 301 302 302 302 302 302 303 305 303 304 304 306 310 310 311 313 314 309 309 314 309 310 313 319 327 328 328
309 308 307 308 308 306 302 300 299 301 302 301 301 302 302 302 301 302 304 305 307 307 308 309 311 310 309 307 306 307 308 310 313 311 310 309 320 326
308 308 307 307 304 302 300 300 302 302 301 301 301 301 302 301 302 302 302 304 305 306 305 307 309 307 306 305 306 306 307 306 307 308 309 309 310 310

GFSNE_sfc_thetae_012.txt.gz
Theta_e
342 343 339 334 334 334 334 334 329 322 323 329 328 334 333 333 336 336 337 336 331 331 330 329 329 329 329 330 331 331 332 333 337 341 344 347 353 357
336 339 341 336 336 336 336 336 334 329 324 328 328 332 335 335 337 337 337 337 334 332 330 328 329 329 330 330 331 331 331 332 333 336 339 341 345 350
340 341 342 344 337 334 334 333 331 330 326 327 329 334 337 338 337 338 337 337 335 333 331 329 328 328 328 328 328 329 329 329 330 332 335 338 341 345
338 340 340 338 341 342 336 338 334 334 328 329 332 330 337 339 336 337 335 333 334 332 330 328 327 325 325 325 325 325 325 325 326 327 330 332 337 340
340 339 339 340 339 336 337 334 331 331 332 327 327 330 330 331 333 337 335 336 332 332 328 327 326 325 324 322 322 321 320 320 321 322 324 326 330 336
340 341 340 340 338 338 336 337 336 333 333 328 327 326 328 333 330 327 325 327 326 329 330 327 327 327 326 323 322 322 319 317 316 317 318 320 323 328
340 340 341 342 337 335 334 337 336 330 327 325 324 323 324 324 327 325 323 325 328 328 326 325 325 328 329 326 328 328 323 320 318 317 316 316 318 320
339 341 341 337 336 330 329 328 329 331 329 325 323 324 328 327 326 324 323 321 318 326 325 324 328 326 327 327 326 324 322 320 319 318 317 316 316 317
341 343 340 335 336 337 331 327 326 324 325 329 327 328 327 328 328 325 323 321 319 323 325 321 325 323 326 327 324 323 321 319 318 318 318 317 316 316
342 342 341 337 340 337 336 332 331 333 333 330 331 329 329 328 325 323 322 322 320 322 327 320 324 322 326 327 323 321 319 318 317 317 316 315 314 313
341 338 337 336 327 322 329 329 330 330 324 320 318 317 316 316 318 320 319 316 314 317 324 321 320 321 322 322 322 321 318 317 316 316 316 315 312 311
334 340 323 325 319 316 324 326 325 327 328 327 326 324 320 323 320 323 320 317 317 315 321 320 320 317 310 317 319 324 322 318 314 314 314 314 311 323
334 335 331 316 311 310 310 327 324 322 322 323 322 321 319 322 322 322 324 319 315 315 320 324 317 313 311 311 316 319 320 322 323 323 311 311 309 317
334 332 323 309 309 308 311 312 310 310 320 321 319 316 317 317 318 319 321 321 320 321 327 327 316 312 310 310 312 319 325 322 323 324 331 319 309 311
334 319 310 308 305 306 309 310 307 319 320 317 314 314 316 316 318 320 321 325 327 327 325 328 318 315 314 312 315 319 320 324 329 333 333 331 325 322
314 321 317 314 309 312 316 314 320 320 317 314 314 315 315 314 312 311 310 314 317 320 326 326 322 316 312 317 320 319 321 322 331 340 336 336 335 334
323 326 324 324 323 322 322 321 320 317 314 314 313 312 311 310 309 310 309 315 314 316 315 320 322 317 315 316 314 314 315 318 330 332 332 328 332 336
317 322 321 321 320 320 319 318 316 312 313 312 311 310 308 307 307 307 309 313 312 315 313 317 320 312 311 316 317 312 313 314 319 328 329 327 326 331
318 319 319 319 319 319 316 314 311 313 313 310 309 308 307 306 306 306 308 311 313 314 308 322 319 310 304 304 314 313 310 311 315 322 329 330 329 328
318 318 318 318 317 314 313 312 311 310 309 308 307 306 306 305 305 305 307 309 312 314 315 317 314 310 306 306 307 312 307 310 310 312 320 334 334 324
318 315 315 314 314 313 313 311 310 307 304 305 306 305 305 305 305 305 305 304 307 312 311 313 314 311 313 312 307 307 311 308 309 309 310 320 328 329
317 314 315 314 314 313 311 309 306 305 306 305 305 305 305 305 304 304 305 305 308 310 309 314 313 309 310 306 305 305 307 309 310 310 309 309 309 321
316 314 315 313 312 310 307 305 304 305 306 305 304 304 304 304 304 305 304 305 305 306 310 312 310 306 308 306 304 306 305 305 305 306 307 308 310 310

GFSNE_sfc_thetae_015.txt.gz
Theta_e
345 344 339 335 334 334 337 337 331 323 323 333 333 340 339 335 337 336 338 339 337 332 331 331 331 332 331 331 331 332 332 332 332 333 335 337 341 346
338 343 343 337 337 336 337 337 335 330 324 332 332 338 341 335 340 338 337 339 336 334 333 331 331 331 332 332 331 331 332 332 332 332 333 334 336 340
343 341 342 345 336 335 334 334 331 330 326 327 330 336 344 342 340 341 339 339 337 334 334 332 330 329 330 330 329 329 330 330 330 331 331 332 333 335
339 343 340 337 348 348 337 340 335 339 328 333 334 332 338 342 343 344 336 333 334 332 333 331 329 327 327 327 326 326 325 326 326 327 328 329 330 331
342 343 342 344 346 340 343 338 332 336 335 328 328 332 331 334 336 336 336 335 334 333 329 328 328 327 326 324 323 321 320 321 321 322 323 324 326 328
344 344 343 343 346 346 341 344 341 336 334 328 327 327 329 328 333 329 327 326 328 329 331 328 329 329 327 324 323 322 319 317 317 317 318 319 321 323
343 344 344 344 339 339 338 341 344 334 329 327 325 324 326 327 326 328 325 326 326 331 329 329 328 328 329 328 329 328 323 320 318 316 315 315 316 318
343 345 346 341 338 333 332 330 332 333 333 328 325 325 329 328 328 326 325 321 318 329 326 324 327 327 329 331 329 325 323 322 320 318 316 315 315 315
341 345 343 338 338 340 332 329 328 326 326 331 330 329 330 332 333 329 328 324 320 322 324 321 326 325 329 330 325 323 321 320 319 318 317 316 315 314
341 346 346 344 343 339 337 332 333 338 336 330 332 333 334 334 329 326 326 325 324 323 327 319 325 323 325 330 325 324 321 320 318 317 316 314 313 311
339 344 345 342 329 325 328 329 334 335 330 325 323 321 319 319 320 321 318 317 316 318 324 322 322 323 324 325 327 324 319 317 316 316 316 314 312 310
338 344 327 331 320 319 325 328 328 330 330 330 330 325 321 325 320 324 322 318 317 316 322 318 318 320 316 322 322 320 319 317 314 314 313 313 311 318
333 338 338 317 314 311 313 327 327 324 328 325 323 324 325 326 321 325 329 322 316 315 320 318 317 321 320 316 317 318 319 318 321 321 313 310 309 313
333 337 334 313 310 310 312 317 313 313 321 320 321 320 321 318 319 321 327 324 322 323 322 324 322 322 317 312 310 315 318 320 320 322 323 318 308 309
334 323 314 311 311 309 310 314 312 319 320 320 320 317 316 318 325 323 325 327 327 325 327 330 327 324 320 313 310 311 314 316 320 324 325 326 325 320
318 324 321 319 317 316 318 315 320 321 321 318 315 316 316 315 313 313 311 311 310 317 327 328 329 326 320 315 312 311 313 310 315 320 324 332 333 328
328 331 326 325 324 323 321 321 321 322 320 317 315 313 312 312 311 311 309 310 310 314 316 320 324 328 325 318 310 312 313 311 313 314 319 336 337 331
324 326 324 323 325 322 323 321 322 320 318 316 314 312 310 309 308 308 309 309 310 314 315 319 322 317 314 316 317 312 311 309 311 313 316 328 330 337
321 321 321 321 322 324 323 319 317 316 318 314 312 311 309 308 307 307 307 308 309 312 315 321 320 311 306 304 311 313 309 309 309 309 311 315 327 330
319 319 320 321 320 319 317 315 315 314 313 311 309 308 308 307 306 306 306 307 307 312 313 315 314 308 306 307 306 310 307 307 307 306 307 310 316 323
320 319 318 317 316 316 315 315 314 312 308 306 308 307 307 306 306 306 306 303 304 308 310 313 311 310 312 315 307 306 310 307 307 307 307 306 309 329
320 318 317 316 315 315 314 313 311 308 308 307 307 306 307 306 305 305 305 305 305 305 307 315 316 312 309 308 305 306 306 307 308 309 308 307 305 305
319 318 316 316 315 314 311 309 307 306 307 306 306 306 306 305 306 306 305 305 305 305 306 310 313 313 309 305 307 306 304 304 304 303 305 307 308 308

GFSNE_sfc_thetae_018.txt.gz
Theta_e
347 345 343 340 339 340 338 337 330 321 323 328 332 335 337 335 341 336 337 340 340 336 333 332 333 333 333 333 334 333 332 333 333 333 333 332 333 335
346 345 344 340 342 340 336 336 337 329 324 332 333 338 338 339 340 337 338 340 338 336 332 331 332 333 333 333 332 332 332 333 333 333 333 333 332 332
343 343 342 345 339 339 340 338 335 333 328 329 331 335 336 336 335 338 340 337 336 335 333 333 331 331 332 331 331 331 331 331 331 331 332 332 333 332
341 341 340 339 341 343 340 338 338 335 332 329 333 333 335 339 339 338 337 333 333 334 333 332 331 329 328 328 327 327 327 327 328 328 329 330 331 332
340 340 338 340 341 340 340 338 337 336 336 330 328 331 333 332 329 333 333 336 335 334 329 328 328 328 326 325 324 322 321 321 322 322 323 325 327 328
343 342 342 341 341 342 340 340 338 336 333 330 328 327 331 330 330 327 325 330 329 331 331 329 329 329 328 325 323 323 319 317 316 317 318 319 321 323
342 342 342 343 341 340 339 339 338 332 330 326 325 326 325 326 324 326 324 325 327 329 325 324 324 324 323 325 329 329 324 321 318 316 315 315 316 317
338 342 341 341 339 336 333 330 330 328 328 325 323 324 325 326 327 325 323 321 317 327 323 319 322 321 321 323 326 326 324 322 320 318 316 315 315 315
339 341 334 337 337 337 332 329 329 328 327 323 323 325 326 327 327 324 323 322 318 320 319 315 320 320 323 325 325 324 321 319 318 317 317 316 315 314
336 333 335 336 335 333 335 334 332 332 329 329 326 326 330 331 329 325 322 320 320 321 322 315 320 319 322 324 325 324 321 319 318 317 317 315 312 311
335 331 336 334 332 327 331 330 328 329 331 325 327 324 322 320 321 322 318 315 314 316 320 318 318 317 316 317 320 323 320 317 315 315 315 314 312 310
340 337 328 334 325 320 327 329 328 328 330 330 330 325 322 323 321 321 320 316 315 315 319 316 313 312 308 316 320 321 321 317 314 313 314 314 312 314
334 334 333 322 315 314 317 330 327 323 325 327 326 323 322 324 324 324 324 321 318 314 317 315 311 311 312 314 318 319 319 318 318 317 314 311 310 311
332 334 336 317 311 312 315 318 314 315 321 320 319 319 320 320 320 321 322 321 319 317 318 318 316 315 315 313 313 317 317 316 316 317 317 314 313 311
334 319 315 313 313 311 312 314 314 319 318 318 318 318 317 319 322 319 321 323 323 322 319 324 320 318 317 314 314 315 313 314 316 314 313 314 315 318
318 321 318 319 317 320 319 313 317 319 320 321 319 319 320 317 314 315 312 311 308 308 315 323 321 319 315 316 315 312 313 310 314 312 311 312 314 318
326 330 325 321 321 320 321 323 319 321 320 320 320 317 314 314 312 313 311 308 307 308 310 315 321 321 319 316 312 312 311 311 310 310 309 309 312 317
325 331 327 325 322 322 322 322 321 318 317 318 318 315 313 311 310 310 309 309 307 308 309 312 316 314 312 313 317 310 310 309 309 308 308 307 307 312
328 328 326 324 323 320 320 318 316 318 319 318 316 315 312 310 308 308 308 308 307 307 307 311 315 310 306 303 310 314 309 308 307 305 307 306 305 309
322 321 322 325 324 325 320 319 318 318 317 315 311 309 309 310 308 307 307 306 305 305 308 310 311 310 307 305 307 310 307 307 305 303 304 305 308 311
318 317 323 321 321 320 320 319 317 315 312 310 309 309 310 307 307 306 305 303 304 306 306 304 313 312 311 312 307 307 309 307 306 304 304 302 302 306
322 321 320 320 320 319 319 317 315 313 311 311 310 309 309 308 305 305 304 303 305 306 305 304 316 312 309 304 305 307 306 306 307 307 306 304 302 299
323 321 321 320 319 318 317 313 310 309 309 309 308 307 308 306 307 306 304 304 304 304 303 302 310 312 307 305 306 304 303 302 303 301 301 305 305 305

GFSNE_sfc_thetae_024.txt.gz
Theta_e
329 328 329 326 327 326 326 319 316 312 312 317 320 326 328 326 330 334 327 334 336 335 334 333 333 335 336 337 338 338 337 336 336 336 335 334 332 332
333 331 329 327 327 326 326 322 320 315 312 319 322 323 326 328 332 331 328 334 334 335 334 333 333 333 334 335 335 336 336 335 335 335 335 335 335 333
334 332 331 329 327 324 328 324 323 324 321 321 321 321 326 324 326 329 329 327 328 333 333 333 331 331 332 333 333 333 334 334 334 334 334 335 335 334
330 332 330 333 331 328 327 326 326 325 322 319 321 323 323 324 324 325 327 331 329 333 331 331 330 329 328 328 328 328 329 329 330 330 331 333 334 334
333 331 330 327 327 327 329 328 329 330 327 324 320 322 322 323 322 322 324 324 328 334 330 329 327 327 325 324 323 322 321 322 323 324 325 326 329 330
333 333 331 330 329 330 330 332 330 329 327 325 324 324 323 323 324 320 318 319 320 326 328 327 327 326 324 322 323 324 320 318 317 317 318 319 321 323
332 333 333 334 335 331 333 331 331 328 326 324 323 324 322 319 320 321 318 318 320 320 318 317 317 315 316 319 321 325 323 320 318 317 316 315 315 317
331 331 332 336 336 333 333 332 330 327 325 323 323 322 321 320 320 319 317 315 313 320 316 315 314 312 314 314 321 322 321 320 319 318 317 315 315 315
334 331 332 337 335 333 329 329 329 329 329 327 323 322 318 319 319 317 316 315 314 318 313 309 312 311 315 318 322 322 321 319 318 317 316 315 314 314
335 334 333 334 331 331 330 327 328 329 329 329 327 325 322 321 321 321 318 315 313 314 312 308 312 311 314 315 320 322 319 317 316 316 315 314 312 310
336 336 336 331 325 325 327 325 326 326 327 324 324 323 322 321 323 318 316 311 309 309 311 309 310 309 308 308 308 316 316 314 314 315 315 314 311 309
332 332 325 325 320 319 324 323 321 322 323 322 320 319 320 319 321 319 315 312 309 307 312 309 308 305 302 302 304 307 310 313 312 312 312 312 309 313
328 326 329 319 315 314 316 325 323 321 321 318 315 314 314 312 313 315 315 314 309 307 313 309 304 302 300 302 307 311 312 314 313 314 311 309 308 309
323 326 328 317 313 312 314 316 316 318 316 313 310 309 309 311 311 310 310 313 316 312 313 308 305 304 302 302 304 308 309 310 311 312 312 311 309 309
330 324 317 311 308 313 314 316 313 314 312 308 307 308 310 310 308 305 306 304 303 302 306 303 306 304 305 306 307 305 306 307 309 309 311 310 310 310
320 316 315 315 313 314 314 312 312 310 309 307 307 310 310 305 303 303 301 300 297 298 301 303 304 305 306 307 305 307 308 304 308 309 310 310 310 309
317 315 314 313 312 311 311 310 309 308 309 310 310 310 307 302 302 301 299 297 295 295 298 299 302 303 307 308 307 307 306 306 308 309 308 305 306 306
317 315 313 311 311 311 310 310 310 312 309 310 310 307 302 301 300 298 297 295 294 296 295 296 297 302 304 305 311 305 304 306 308 309 306 302 302 304
316 315 315 313 314 313 312 311 311 313 311 310 304 302 300 298 297 297 295 295 295 294 294 294 297 299 297 296 302 309 304 306 306 303 302 302 301 300
313 314 313 312 311 310 309 306 307 306 302 299 298 297 296 297 297 295 294 293 294 293 294 295 295 295 298 298 299 302 306 303 302 300 301 302 301 304
309 309 309 307 306 305 304 303 302 301 300 298 296 296 297 296 294 294 294 298 296 293 293 294 294 303 303 300 296 297 300 304 303 301 301 298 296 296
310 307 305 305 305 305 303 302 300 299 298 298 297 297 295 295 293 294 294 293 294 293 293 295 294 301 299 296 294 295 297 300 303 305 305 302 296 292
307 306 305 305 304 304 301 300 298 297 295 295 295 294 293 293 294 293 293 294 294 293 293 293 293 299 297 295 296 295 295 296 298 298 299 303 302 300

GFSNE_sfc_thetae_027.txt.gz
Theta_e
328 328 327 324 325 324 320 318 315 310 314 317 319 323 326 325 328 330 333 333 336 335 333 333 333 335 336 337 338 338 339 339 338 337 336 336 334 334
328 327 327 325 324 324 323 320 317 315 312 316 322 322 324 327 329 331 331 336 334 334 333 333 333 334 335 335 336 336 337 337 337 336 336 336 336 335
330 329 327 326 325 326 324 322 321 318 315 321 323 322 323 322 324 326 330 326 326 331 332 332 332 332 333 333 333 333 333 334 334 335 336 336 336 336
329 330 329 331 327 325 325 323 321 323 322 319 322 324 323 323 323 323 326 329 328 332 331 330 329 329 328 327 326 326 326 327 328 330 332 333 334 335
328 328 330 328 326 326 324 324 324 328 327 323 322 324 324 323 324 323 323 323 326 331 328 328 327 325 324 322 321 320 320 320 321 322 324 326 328 330
332 331 329 329 327 325 325 325 326 325 327 325 324 324 324 324 324 322 321 321 322 325 328 327 326 325 325 322 321 322 319 317 316 316 317 318 320 323
331 332 332 332 334 329 328 327 326 325 325 323 323 322 322 322 320 321 319 318 319 321 318 318 317 315 315 318 321 324 321 319 317 316 315 315 315 317
331 332 332 336 335 332 331 331 330 327 321 320 322 321 322 321 322 321 318 316 314 319 314 315 315 314 314 313 321 322 320 319 318 317 316 315 315 315
332 334 333 335 334 332 330 330 330 328 328 324 321 323 321 322 321 315 315 314 313 317 314 311 312 311 315 315 320 321 320 319 318 316 315 315 314 313
335 335 334 333 334 330 327 326 326 329 326 328 326 325 324 324 321 319 317 315 314 316 313 308 312 312 314 313 320 321 320 318 317 314 314 312 311 309
336 335 334 333 327 325 329 324 323 324 326 323 323 322 322 322 322 317 315 312 309 310 311 309 309 308 309 310 312 318 317 314 312 312 313 312 310 309
335 334 327 330 320 319 327 323 322 321 321 322 321 319 319 319 321 319 317 311 307 305 310 308 306 305 303 303 303 305 305 310 310 310 311 311 309 309
333 331 330 318 313 314 317 322 320 323 322 320 317 315 312 311 312 312 313 312 307 306 311 309 305 302 300 300 303 307 308 311 311 311 310 308 308 309
329 327 325 315 310 310 313 316 313 319 317 314 311 308 307 308 310 307 309 309 312 310 311 308 305 302 298 298 299 304 307 308 308 309 309 309 308 308
325 322 319 312 308 311 312 312 313 316 313 311 308 306 308 310 307 304 304 302 301 301 304 302 303 300 300 299 301 303 303 306 307 306 308 308 309 309
319 318 317 315 314 314 313 313 314 313 311 308 306 307 308 306 302 302 300 298 296 297 299 299 299 299 300 301 301 302 306 302 305 307 308 309 311 310
318 319 317 313 313 311 311 311 310 310 309 306 307 307 307 304 301 300 298 296 294 293 295 297 298 298 300 300 300 304 304 302 305 305 306 305 306 305
320 319 318 314 313 311 310 309 308 311 307 307 307 307 306 301 300 297 296 294 293 293 293 293 294 297 299 300 309 303 301 300 304 304 304 300 300 303
319 317 315 312 311 310 310 309 310 310 309 308 308 304 301 299 297 296 294 293 293 292 292 292 293 294 292 292 299 308 300 301 301 300 300 299 299 301
315 314 314 313 313 312 311 310 309 308 306 305 300 297 296 295 296 294 293 291 292 292 292 292 292 291 292 295 297 300 304 299 299 298 298 300 302 304
311 311 312 310 309 307 305 304 303 301 298 297 296 295 295 295 293 293 292 296 295 291 291 292 294 301 297 298 294 293 296 302 301 298 299 298 296 296
310 309 307 305 304 304 303 302 300 299 297 296 296 294 295 294 292 292 292 291 292 292 292 293 293 298 297 294 292 292 294 297 301 304 305 303 297 292
308 306 304 304 304 303 302 300 299 297 296 294 294 295 293 292 293 292 292 292 292 291 290 291 292 296 295 294 294 292 292 295 296 296 300 304 303 302

GFSNE_sfc_thetae_030.txt.gz
Theta_e
335 335 333 331 332 330 327 326 326 320 321 326 327 332 334 333 333 338 338 337 336 336 333 333 334 335 336 338 338 338 339 340 340 339 339 339 336 334
333 334 334 331 332 331 331 327 325 325 322 324 328 331 333 334 333 337 335 336 336 333 333 333 333 334 335 336 336 336 337 337 337 337 338 338 337 337
335 333 334 333 330 331 331 328 327 325 324 328 327 330 330 333 333 335 335 336 335 331 332 331 331 332 333 333 333 333 332 333 333 334 335 336 337 337
335 334 334 332 332 332 330 331 330 330 329 330 329 328 330 329 330 331 332 333 335 333 331 330 329 329 328 328 326 325 325 326 327 328 330 331 333 335
335 335 335 335 334 332 331 330 330 332 332 329 329 328 331 331 330 327 332 332 330 331 329 328 327 326 324 322 321 320 318 318 319 320 321 323 325 328
337 335 335 335 334 334 332 332 332 333 332 332 331 331 330 331 329 324 325 327 326 328 331 328 327 326 325 322 321 322 319 317 316 316 316 318 320 322
338 338 336 335 335 333 333 333 333 332 331 330 328 327 326 325 324 325 322 324 326 329 328 328 327 327 327 324 324 324 321 319 317 316 315 315 315 316
336 337 338 336 335 331 330 331 334 333 331 330 328 327 329 328 327 326 322 324 320 328 325 325 326 326 327 326 323 322 321 319 318 317 316 314 314 315
337 337 336 338 335 337 330 329 329 329 331 332 329 328 330 331 329 326 325 323 322 327 325 322 324 323 326 324 321 321 320 319 318 317 316 314 313 312
338 337 338 338 336 336 337 334 334 334 333 334 334 334 333 332 331 329 326 325 325 325 324 319 323 320 323 323 321 321 319 318 317 315 314 311 309 308
337 338 337 336 329 326 333 333 332 331 326 324 325 323 322 322 326 326 323 321 320 320 320 319 320 318 319 319 321 318 316 314 312 313 312 311 309 307
338 337 328 334 321 320 335 331 329 328 331 329 332 326 324 326 322 327 325 321 318 316 319 316 316 316 309 316 314 316 316 312 309 308 310 310 308 317
335 335 336 321 315 314 321 333 331 330 326 327 327 326 323 321 320 322 324 321 318 316 319 318 316 314 311 309 311 314 316 315 317 317 311 308 307 309
335 337 333 315 311 311 317 316 314 321 326 326 323 322 318 318 319 318 320 321 322 320 320 320 314 312 310 307 305 311 314 314 317 317 318 312 308 308
335 329 317 309 307 310 313 313 314 327 325 322 321 320 317 319 319 316 315 315 314 314 313 314 312 311 310 308 305 307 308 311 315 316 314 312 312 313
320 321 319 318 318 319 317 316 324 325 323 322 320 318 317 317 315 312 312 309 308 309 312 310 310 310 307 307 307 306 308 309 313 312 311 311 312 312
320 321 322 322 320 320 319 321 321 321 319 318 316 315 316 315 314 310 309 307 306 305 304 307 309 309 308 308 305 307 308 311 310 309 309 307 308 309
322 323 323 322 321 319 319 317 317 317 318 316 316 315 315 315 313 307 306 305 304 304 303 304 304 305 306 308 309 307 311 310 307 308 307 304 305 307
325 324 324 322 322 320 318 317 317 317 317 316 315 315 315 312 307 305 305 303 302 303 303 303 303 303 300 298 305 310 311 307 304 304 305 304 302 303
325 324 324 322 321 319 318 317 318 317 316 316 315 315 311 307 304 304 303 302 302 303 303 304 303 302 301 302 304 309 304 305 302 303 303 305 305 306
321 322 324 322 320 319 319 317 317 316 314 313 310 307 305 305 304 303 302 299 300 302 302 303 304 302 304 307 304 304 306 302 303 303 303 301 299 299
320 320 319 319 318 316 313 312 310 307 307 307 306 304 305 304 303 302 302 302 303 302 302 302 304 305 309 305 303 303 301 302 304 305 304 303 300 294
318 317 314 314 313 312 311 310 309 308 307 307 305 304 304 302 302 303 302 302 302 301 301 301 303 303 303 303 301 300 299 299 299 301 303 305 304 303

GFSNE_sfc_thetae_033.txt.gz
Theta_e
347 347 343 342 341 339 337 336 331 325 326 334 333 342 343 343 342 343 344 341 337 336 335 334 334 336 337 338 338 339 340 340 340 340 340 340 339 338
344 346 346 342 342 341 339 337 335 332 326 333 334 341 343 342 342 343 343 339 337 336 334 333 334 335 335 336 337 337 337 337 337 337 338 338 339 338
346 345 345 347 340 340 340 339 336 334 330 334 336 341 340 341 341 345 342 343 340 334 333 332 331 332 333 334 334 333 332 332 332 333 333 334 335 336
346 345 344 342 344 344 340 342 339 339 334 336 339 337 339 343 342 342 339 337 339 336 333 332 331 330 330 329 327 326 325 325 325 326 327 328 330 331
347 346 345 344 342 340 340 339 338 339 339 335 333 337 338 339 339 340 340 340 337 335 329 329 329 328 326 324 323 321 319 319 320 321 321 323 324 326
349 347 346 345 344 344 341 342 341 339 339 336 334 335 337 339 337 333 332 334 334 331 332 329 331 330 328 324 323 322 319 317 317 317 317 318 320 322
349 348 347 346 340 342 342 344 344 339 337 335 334 334 334 333 332 331 332 333 334 334 332 334 334 332 331 329 329 328 323 320 317 316 315 315 315 316
350 349 350 341 339 333 333 336 342 341 340 336 334 333 336 335 333 333 331 326 326 338 333 330 334 332 332 332 328 324 321 320 319 318 316 315 314 315
353 351 347 346 341 343 331 330 331 332 336 343 338 338 339 339 339 335 333 332 330 338 333 327 331 329 330 328 324 322 320 319 318 317 317 315 314 312
353 352 351 348 346 346 345 342 341 341 340 340 343 344 343 342 340 337 338 336 334 333 335 324 326 325 325 325 323 322 320 318 316 315 314 313 310 309
351 351 351 349 338 328 344 343 342 343 331 327 329 327 325 326 332 336 334 329 324 325 330 324 322 321 321 321 321 320 317 314 312 311 312 311 308 307
352 352 331 345 325 321 343 344 341 341 341 338 337 328 328 330 323 337 335 325 322 320 328 319 318 318 313 315 317 317 316 313 311 310 311 310 307 320
348 347 348 323 316 316 324 345 342 341 336 340 338 336 336 334 333 334 335 327 322 321 324 322 317 316 312 311 313 314 314 314 316 315 309 309 307 310
348 348 343 316 314 313 320 323 317 327 338 335 333 331 331 330 330 328 330 330 328 327 327 325 316 313 310 308 307 311 312 314 315 315 316 313 309 308
350 336 321 312 312 315 317 315 317 336 334 332 330 330 332 331 330 327 327 328 328 326 322 324 318 315 312 308 307 308 309 310 313 315 317 315 313 313
324 325 322 321 323 326 322 318 335 337 334 332 332 332 329 326 324 324 321 320 319 319 322 320 319 317 310 309 309 309 309 307 313 315 314 312 311 311
325 327 327 326 327 327 330 327 332 334 332 333 331 327 325 323 323 323 322 320 317 316 314 314 317 318 314 314 309 308 308 310 313 313 311 307 309 312
326 325 324 326 327 328 327 328 329 329 332 331 329 327 324 322 323 321 320 317 315 314 311 309 309 309 310 314 315 308 309 309 311 310 309 305 307 311
327 327 326 327 327 326 326 326 327 329 332 328 327 325 323 324 321 320 317 314 313 311 309 309 309 307 304 302 309 311 310 309 308 305 305 307 307 310
328 327 327 328 329 328 328 327 328 327 327 326 325 325 324 323 320 317 315 313 310 309 307 308 309 308 305 304 305 309 305 310 306 303 304 308 310 309
328 329 330 331 332 331 329 329 328 326 325 325 325 324 323 320 317 315 312 304 305 307 306 307 309 303 310 313 307 305 308 304 305 304 305 305 305 302
329 332 332 333 334 332 328 328 327 323 324 324 323 321 319 317 314 311 309 307 307 306 307 308 311 310 310 306 304 306 305 306 306 306 306 305 303 296
332 333 334 333 331 328 326 324 323 322 321 319 318 316 315 313 312 310 308 308 307 306 307 306 307 308 307 306 304 304 305 304 302 302 305 306 306 305

GFSNE_sfc_thetae_036.txt.gz
Theta_e
354 352 346 343 343 341 340 337 333 328 329 338 334 344 342 343 347 346 347 343 340 338 337 336 337 336 338 339 339 340 340 341 341 340 340 339 340 341
350 350 350 344 344 343 341 339 337 333 328 336 336 342 344 344 344 346 346 343 340 337 336 335 335 336 335 336 337 337 338 338 338 336 337 337 337 337
353 350 351 353 342 342 342 341 339 337 332 334 339 345 347 345 343 345 345 344 342 337 336 335 333 333 334 334 335 335 334 333 332 332 333 333 334 335
354 352 350 347 350 351 343 351 345 346 336 340 343 339 345 347 347 347 342 340 340 338 335 334 333 332 332 332 332 331 329 327 326 326 327 329 330 331
356 353 351 349 349 344 345 343 342 341 342 337 336 340 339 342 344 346 345 344 341 336 331 331 331 330 330 328 326 324 322 321 322 322 323 324 325 327
358 356 353 349 349 349 344 346 346 341 343 338 336 336 338 343 341 336 336 339 337 337 336 330 333 333 331 327 325 324 320 318 318 318 319 319 321 323
359 358 355 351 342 345 344 349 351 343 338 338 336 336 336 335 337 337 334 335 339 339 337 337 336 336 334 327 330 330 325 322 319 318 317 316 317 318
361 359 359 347 344 336 335 337 347 349 347 337 336 337 344 340 338 336 333 333 328 348 338 334 335 333 335 335 327 324 323 321 320 318 317 316 316 317
364 360 356 353 348 351 336 333 334 334 338 348 344 344 344 344 344 341 339 335 333 340 338 331 333 331 332 330 325 323 322 320 319 318 317 316 315 314
365 363 362 361 357 352 351 345 343 347 346 343 347 346 351 348 346 343 342 341 339 337 340 328 330 326 329 328 324 322 321 319 317 315 315 313 311 309
365 364 364 363 344 331 351 349 347 347 335 329 331 331 330 331 337 339 334 334 329 330 336 329 326 323 325 324 324 322 316 314 312 313 313 312 309 308
364 367 336 354 330 324 349 353 347 347 347 344 342 334 332 334 326 340 336 330 328 325 332 325 321 321 318 322 320 320 319 315 312 311 311 311 309 317
354 357 358 327 319 318 328 349 345 348 342 346 341 341 341 340 338 338 340 335 328 324 328 328 322 321 318 316 317 316 316 316 317 316 310 308 307 311
355 356 355 320 316 314 323 327 320 328 343 338 339 337 337 336 337 338 341 339 332 332 333 331 321 320 317 314 311 314 314 316 316 315 316 313 309 309
357 346 326 313 313 314 318 319 321 338 340 337 333 336 336 337 341 338 337 337 336 335 330 332 325 323 316 311 309 311 311 314 315 314 315 317 317 317
329 336 326 323 322 324 322 324 336 336 339 338 335 337 338 335 333 332 328 327 325 324 330 328 326 322 313 312 311 310 312 309 313 314 316 317 316 314
324 327 326 327 327 326 329 330 337 338 337 337 336 335 333 331 330 329 327 326 323 321 321 323 325 324 318 318 311 312 312 311 312 314 316 312 312 312
328 328 327 328 328 328 327 327 333 334 337 337 335 334 332 329 328 327 326 325 323 321 319 318 315 312 312 318 318 312 312 311 312 314 315 308 307 311
328 326 327 327 329 330 331 329 328 335 340 337 334 333 331 330 325 326 326 324 322 320 318 315 312 310 307 306 312 314 310 311 311 310 309 307 306 307
331 330 329 330 331 331 332 331 333 335 336 334 333 332 330 327 326 326 324 321 319 317 313 313 311 311 309 307 307 310 306 313 310 307 306 307 308 309
336 336 334 333 332 332 333 334 336 334 333 332 330 329 328 327 325 323 322 309 310 313 311 310 314 310 312 312 310 310 312 305 308 309 307 304 304 307
336 335 335 334 335 334 335 334 333 330 331 329 327 328 327 326 323 321 319 315 312 310 311 311 314 313 311 309 307 310 309 311 310 307 306 304 305 301
335 336 337 338 336 338 336 333 331 330 330 329 327 326 325 322 322 319 316 313 311 311 310 310 310 311 310 309 307 308 310 309 307 305 306 308 308 307

GFSNE_sfc_thetae_039.txt.gz
Theta_e
361 359 350 345 344 342 341 339 335 329 332 342 336 350 343 343 347 346 347 341 339 338 338 337 338 338 338 339 340 340 341 341 341 341 340 338 339 340
354 362 357 343 347 344 342 340 338 334 329 338 339 344 346 341 346 346 345 346 342 339 338 336 336 337 337 337 337 338 339 339 339 338 336 336 335 335
362 362 359 361 343 343 343 342 340 338 332 335 339 350 352 348 346 346 346 349 342 338 338 336 336 335 335 336 336 337 337 335 334 332 332 333 333 333
360 360 356 349 358 357 345 356 346 350 338 350 346 343 350 354 352 354 346 340 342 337 340 337 335 334 334 333 334 333 333 330 328 327 327 328 329 330
363 361 357 356 358 347 347 346 343 345 346 339 338 341 343 345 347 352 351 350 343 337 334 335 332 331 331 330 329 327 324 324 323 323 323 324 325 327
365 364 361 358 356 357 353 352 352 346 345 341 338 337 339 348 342 338 343 343 341 340 338 334 338 334 331 328 327 326 321 320 318 319 320 321 322 323
366 366 364 358 348 351 349 351 350 347 339 338 338 337 336 341 338 339 338 344 345 342 340 339 340 337 335 330 333 330 326 323 321 319 318 317 317 319
365 367 366 351 347 337 338 338 347 353 347 339 339 339 352 347 341 338 340 339 331 346 339 338 347 335 336 337 332 333 327 323 321 319 318 317 317 317
367 367 364 358 352 356 336 335 334 334 340 352 347 347 354 354 353 350 347 340 337 338 344 335 342 333 334 329 328 326 322 320 319 318 318 316 315 314
367 367 368 364 360 358 356 348 348 348 347 345 351 351 354 356 352 351 350 348 343 340 345 330 335 332 331 330 329 325 321 319 318 317 315 314 311 309
366 367 368 367 348 335 357 354 350 349 335 331 332 332 332 335 338 345 337 336 331 333 340 332 330 327 326 326 329 324 321 316 314 314 314 313 310 309
363 366 340 360 337 327 354 355 350 346 348 344 340 334 335 337 330 345 341 332 336 329 340 330 328 324 319 325 325 326 323 315 312 311 311 311 309 315
358 359 363 331 325 319 333 356 351 351 342 346 342 343 342 344 340 340 343 336 331 330 334 333 327 323 321 319 322 324 322 320 321 319 310 307 307 311
358 358 360 324 320 316 325 331 322 335 348 345 341 340 340 339 342 340 341 342 342 340 334 336 326 321 320 318 315 319 319 321 321 320 321 315 309 308
360 343 322 315 316 318 320 320 323 347 346 341 339 337 339 339 340 342 345 347 344 340 334 340 329 332 322 317 314 313 311 315 319 319 319 319 320 321
339 350 337 328 327 337 326 329 342 344 341 338 338 339 340 337 335 337 335 334 330 329 339 339 337 332 319 317 314 311 313 311 317 318 318 318 318 319
344 338 335 336 332 329 333 335 338 338 336 338 338 335 335 334 333 335 334 332 327 324 324 328 334 333 324 325 312 314 314 314 315 317 318 314 315 315
337 334 333 331 330 330 330 333 336 336 337 337 339 335 332 332 330 333 332 329 327 327 324 324 325 321 319 323 320 314 314 313 315 317 317 311 308 313
339 336 335 334 331 330 331 332 334 334 339 340 335 333 331 333 330 327 328 329 326 326 324 323 320 315 309 307 315 315 312 312 313 313 312 310 308 310
338 335 334 333 331 332 333 334 335 335 336 338 333 333 333 331 326 329 328 328 326 324 321 320 317 314 310 310 310 312 306 316 312 310 309 310 311 309
330 329 330 331 333 335 333 333 336 335 335 336 335 335 332 329 328 329 328 317 319 321 318 316 317 313 318 315 308 311 315 305 311 313 311 306 305 306
329 330 337 332 333 333 333 334 336 335 334 335 334 332 333 332 329 328 324 321 320 319 316 315 319 316 314 310 309 312 311 314 310 308 307 306 305 300
332 332 336 334 332 334 335 334 334 333 334 334 331 332 332 330 329 326 323 321 318 315 313 312 312 313 312 311 310 309 315 312 310 309 310 308 309 307

GFSNE_sfc_thetae_042.txt.gz
Theta_e
359 361 355 351 350 347 346 344 340 332 334 344 338 345 347 345 344 339 340 338 338 337 336 336 337 337 338 339 340 340 340 341 341 341 340 338 336 336
358 357 356 348 348 350 348 346 344 339 333 341 343 343 343 346 348 347 345 342 338 338 336 335 336 337 338 338 338 338 338 339 338 338 335 334 335 334
359 358 355 352 349 350 348 348 345 343 336 339 347 350 347 343 343 345 346 346 341 336 337 337 336 336 336 336 336 336 336 336 334 333 331 331 332 332
357 357 356 352 352 353 354 347 345 347 342 341 345 346 347 348 348 348 345 343 346 340 338 336 335 334 333 334 333 333 333 332 329 327 327 327 328 329
360 356 354 353 350 346 348 348 347 349 350 341 341 348 348 348 346 346 349 346 346 339 334 334 332 332 331 330 329 328 327 326 325 324 323 324 325 327
362 360 357 353 349 350 347 345 347 346 343 344 341 340 345 346 344 340 341 344 342 338 337 334 333 332 330 327 327 326 322 320 319 319 320 320 321 323
360 362 360 356 348 347 350 349 344 344 344 338 338 340 339 342 337 340 338 339 341 342 339 339 338 333 332 329 332 331 328 323 321 319 318 317 317 318
360 360 361 351 348 340 340 342 346 342 339 337 337 335 338 341 343 339 337 336 330 342 338 337 341 338 337 335 333 334 331 326 322 319 318 317 316 316
362 360 360 360 351 352 338 337 336 336 339 342 338 341 345 346 346 343 341 338 334 340 337 332 337 335 335 328 328 328 330 323 320 318 317 315 314 314
362 362 360 359 358 354 350 344 344 342 339 343 345 343 348 351 347 347 344 341 340 339 340 328 335 332 332 326 326 328 323 322 319 316 315 313 311 310
361 362 362 360 349 335 352 346 343 343 334 332 334 337 336 335 344 343 339 334 332 332 340 332 333 331 326 327 324 324 320 319 316 315 314 313 310 309
357 359 339 354 336 326 350 350 345 343 343 341 338 332 332 335 332 344 340 333 331 330 336 332 330 328 318 325 326 319 318 316 312 311 312 311 309 308
354 354 357 329 325 321 328 351 348 348 341 344 340 339 338 340 336 339 342 338 332 330 335 332 329 325 320 319 322 323 323 317 317 314 309 307 307 309
356 355 354 327 320 319 323 335 324 334 349 343 341 338 336 336 339 338 340 340 337 336 328 332 327 323 319 317 315 319 317 317 317 315 317 313 310 308
361 350 325 316 316 321 321 326 323 347 348 342 340 338 338 338 339 339 337 337 336 337 333 334 328 326 322 318 315 314 310 313 316 315 314 314 312 313
340 347 341 334 328 331 333 327 345 350 348 343 341 340 340 339 337 337 335 334 333 332 334 336 332 327 321 319 316 313 313 308 314 315 314 312 313 312
344 354 354 352 350 345 342 338 344 347 344 344 342 337 337 336 335 335 333 332 328 327 326 330 332 329 324 319 314 312 311 314 316 315 311 309 311 311
339 349 351 352 346 341 337 338 342 342 344 343 339 337 334 333 332 332 332 329 326 325 323 326 325 322 320 320 321 311 313 314 312 313 312 308 305 308
349 344 345 342 338 339 337 339 339 342 344 341 338 334 332 332 329 329 328 327 324 324 324 325 322 318 314 309 314 317 313 311 311 311 310 307 304 305
343 340 339 341 340 337 337 337 340 342 341 339 336 333 333 331 329 328 326 324 324 324 324 324 321 317 311 308 310 313 309 311 312 309 307 308 308 310
329 329 329 330 331 332 332 332 332 332 332 334 332 332 331 329 327 328 326 318 320 324 320 319 319 319 318 313 307 306 312 306 313 309 308 305 302 302
328 327 330 332 332 333 329 330 331 331 332 331 332 332 331 330 328 327 325 323 322 321 320 314 315 315 313 310 306 308 312 311 308 308 309 308 302 296
335 335 335 335 334 332 331 331 334 331 333 333 332 331 331 328 327 325 325 321 319 319 318 312 314 314 312 311 309 309 309 311 311 309 310 309 310 306

GFSNE_sfc_thetae_045.txt.gz
Theta_e
348 349 344 340 340 335 330 331 327 320 324 332 329 336 335 340 337 334 330 337 337 335 335 335 335 337 337 337 338 339 340 340 340 340 339 335 332 332
351 349 347 343 338 338 334 331 330 327 321 331 332 335 337 338 339 331 330 336 337 335 334 333 334 335 336 336 337 338 338 338 338 337 334 332 332 331
350 349 348 345 337 335 336 335 330 330 324 326 333 334 335 336 337 336 340 337 333 334 334 334 333 334 335 336 336 336 336 336 335 332 330 329 330 330
351 347 348 349 340 338 341 333 333 334 328 324 333 336 333 334 334 334 337 341 338 338 334 333 332 333 332 332 332 332 331 332 330 328 327 327 328 328
353 351 348 348 342 340 339 338 337 335 336 330 332 336 337 337 337 338 336 335 339 339 333 333 332 331 330 328 328 327 327 326 325 323 323 323 324 326
355 353 351 349 346 342 337 337 337 335 333 333 329 330 335 338 335 333 333 338 335 338 336 334 332 332 330 327 326 325 322 321 320 319 318 319 321 322
351 356 355 351 346 344 343 339 337 335 334 332 331 330 329 333 335 334 333 334 335 335 328 329 328 329 329 329 330 330 326 323 319 318 317 316 316 317
354 352 356 350 346 339 340 340 341 335 333 336 332 332 333 332 334 335 334 329 327 335 331 329 332 330 330 329 330 329 325 324 322 319 317 315 314 314
357 356 353 356 348 350 338 337 337 337 335 335 335 333 333 335 336 333 333 331 328 331 330 327 331 328 331 331 328 326 325 326 322 319 317 315 313 312
357 357 356 354 354 352 349 344 343 342 340 338 335 336 337 338 340 338 335 333 333 335 332 325 329 328 328 323 328 326 324 322 320 319 315 313 310 308
357 357 358 356 346 334 351 347 344 343 336 331 333 332 332 335 340 340 334 330 327 330 335 329 329 328 326 322 321 325 321 318 319 317 315 313 309 307
356 356 338 351 335 328 349 350 345 344 343 338 335 331 333 336 335 340 336 330 327 326 332 331 328 327 320 320 318 319 317 315 313 312 311 311 308 305
354 353 355 330 324 322 327 353 349 348 342 341 339 338 336 336 337 340 339 336 329 327 332 332 328 324 315 313 316 315 313 312 311 309 308 306 306 307
356 357 354 325 320 320 323 334 328 330 349 341 340 337 335 335 336 339 340 339 338 333 331 332 326 326 314 312 311 312 310 310 310 307 309 309 308 307
360 352 335 323 316 320 321 325 324 342 349 346 340 340 338 339 339 336 338 338 335 334 334 327 326 319 316 312 311 309 306 305 307 307 307 306 305 306
338 347 341 336 333 333 328 325 332 345 349 348 347 345 343 338 336 337 334 334 332 332 332 331 326 321 316 314 311 308 307 302 304 306 306 305 306 305
339 347 350 350 348 348 337 337 334 336 342 347 347 346 342 337 335 336 335 333 330 329 328 329 326 322 317 314 308 308 305 303 306 309 304 301 304 304
330 341 345 348 350 350 349 348 337 335 339 343 345 347 343 337 336 335 335 331 329 328 327 327 324 318 315 315 314 306 305 305 306 306 304 302 299 302
338 340 342 344 346 344 344 343 341 342 341 341 344 344 344 340 335 335 331 330 329 328 326 326 322 317 309 307 310 313 305 305 303 302 304 300 299 300
331 331 331 335 338 338 338 339 339 339 340 338 334 333 333 331 331 331 330 329 327 325 322 324 320 317 314 311 305 306 307 304 303 303 301 301 302 308
328 328 329 329 330 331 330 332 332 332 331 330 328 328 329 329 325 327 328 320 322 323 320 320 321 319 310 305 300 300 304 306 307 303 301 299 296 295
322 322 324 327 327 327 327 326 328 326 327 325 325 327 328 329 328 328 326 323 323 321 319 314 316 311 306 302 300 299 304 304 305 309 308 304 296 291
325 326 326 326 325 325 327 325 326 326 327 328 330 329 328 327 328 326 324 324 323 318 311 308 307 306 305 303 302 301 302 303 301 300 301 307 308 307

GFSNE_sfc_thetae_048.txt.gz
Theta_e
343 345 339 336 337 334 327 327 323 319 321 328 328 333 335 333 332 335 331 338 338 336 334 334 336 337 338 338 338 338 339 339 339 339 339 335 331 331
347 344 343 342 337 336 332 326 326 322 318 326 330 332 334 337 337 335 329 336 337 335 333 332 333 334 335 336 336 336 337 338 337 337 335 332 332 330
350 346 344 343 340 335 333 331 326 325 321 322 329 330 331 332 333 333 329 328 329 334 333 332 331 332 333 334 334 335 336 335 335 335 332 330 329 329
351 348 346 347 341 337 333 332 330 327 324 320 324 333 331 332 332 333 330 333 332 334 333 331 330 329 329 330 331 331 330 331 331 330 329 327 327 328
352 349 349 348 345 342 335 335 333 331 329 324 324 331 331 332 329 331 331 333 336 338 332 331 330 329 328 327 326 325 324 325 325 324 324 324 324 326
352 352 351 348 348 344 339 336 334 334 330 330 325 331 331 334 331 330 329 332 332 338 337 334 333 332 330 327 326 325 321 319 319 319 318 318 321 322
351 353 352 350 346 344 345 341 334 333 331 329 327 326 328 331 331 330 330 332 335 333 331 329 329 330 331 330 331 331 324 321 318 317 315 315 316 316
351 350 352 348 345 339 338 339 340 336 333 333 333 331 331 331 333 334 332 327 326 334 331 331 328 327 329 328 330 328 324 322 320 317 316 315 314 314
353 352 351 352 347 350 338 336 336 334 336 334 332 334 332 333 332 332 333 331 331 331 336 332 329 328 332 333 328 326 324 321 320 318 317 315 313 312
355 355 353 353 351 351 351 345 342 344 339 338 336 334 336 337 336 335 334 334 330 331 332 328 327 329 330 329 328 326 323 321 320 318 316 313 310 308
355 355 356 355 344 333 350 349 347 346 339 331 333 331 328 329 333 335 330 327 326 327 331 327 327 327 327 324 324 326 322 319 317 317 315 312 309 306
356 356 338 349 333 328 345 350 348 349 348 346 336 334 329 331 329 337 336 331 330 326 332 328 327 327 323 324 324 321 322 316 313 313 313 311 308 304
354 354 356 329 324 322 326 352 350 351 347 347 346 342 340 340 337 339 341 338 333 330 332 333 328 325 323 318 319 317 319 313 313 311 308 307 305 306
355 356 354 328 320 319 323 331 328 329 352 352 347 345 342 340 339 340 342 341 340 337 334 336 329 326 321 314 314 313 313 312 310 309 307 307 306 306
359 350 333 323 318 320 319 324 323 342 348 349 349 349 345 346 343 339 342 342 340 339 337 335 331 330 325 317 314 309 309 307 306 306 306 305 303 304
336 347 341 333 327 335 332 326 331 340 344 347 348 351 353 347 341 338 336 338 335 334 335 335 330 329 324 318 315 310 308 304 304 304 304 302 304 303
339 344 346 349 350 350 349 339 335 335 336 340 344 346 347 348 342 339 336 335 333 333 328 330 330 327 322 316 311 311 306 303 302 305 302 300 301 302
332 337 340 342 344 347 350 350 341 337 339 338 340 342 343 344 344 341 337 334 332 333 330 329 324 318 316 316 316 308 304 303 305 305 301 300 298 299
334 334 336 337 339 341 345 347 345 340 339 338 338 340 341 341 338 340 338 334 333 334 331 327 321 318 312 310 313 311 305 304 303 301 302 299 298 298
329 327 329 331 334 336 335 335 338 338 338 337 331 330 330 329 328 329 328 326 326 326 325 324 322 320 316 312 307 310 306 303 302 301 300 298 301 307
327 324 325 324 324 323 324 325 326 330 331 330 328 326 328 323 326 325 322 317 320 324 322 322 323 318 313 311 303 303 306 306 306 303 299 298 295 295
318 318 319 319 320 321 322 322 325 327 327 329 325 325 326 326 324 325 326 324 323 323 322 320 316 314 307 306 302 300 303 304 306 308 307 304 297 292
320 321 321 322 323 323 323 325 326 325 325 325 324 328 329 328 327 325 325 322 320 318 317 315 314 310 304 305 302 300 301 301 301 301 302 306 306 305

GFSNE_sfc_thetae_051.txt.gz
Theta_e
342 340 336 334 335 331 326 324 322 317 320 326 326 331 333 333 334 336 335 337 338 337 335 335 336 337 339 340 339 339 339 338 339 339 339 337 332 331
343 340 340 338 335 334 332 325 324 321 318 323 327 329 332 334 335 333 333 336 337 336 334 333 333 335 336 336 336 336 336 337 338 337 337 334 332 329
347 344 342 341 339 336 332 330 325 323 319 321 325 328 329 331 333 336 333 329 328 335 334 333 331 332 333 334 333 334 334 335 335 335 336 333 330 329
349 346 346 346 340 337 333 330 329 325 323 320 321 328 328 330 332 332 334 331 327 331 333 332 331 330 329 329 329 330 330 331 331 332 332 331 328 328
350 348 349 346 344 342 337 333 330 330 326 322 323 325 330 328 328 329 329 329 329 333 330 330 330 329 327 326 325 325 324 324 325 325 326 326 326 326
351 351 351 349 348 346 342 339 335 330 327 326 325 325 328 330 328 327 326 328 330 333 336 334 333 332 330 326 325 325 321 320 319 320 320 320 321 323
350 351 351 351 346 346 347 345 339 336 333 329 328 324 326 327 328 327 329 329 330 331 332 332 331 330 331 329 331 331 324 322 319 318 316 316 316 317
349 350 351 347 345 339 338 341 343 339 336 332 334 331 331 329 333 331 329 323 323 331 331 331 331 330 331 330 331 328 325 323 320 318 316 315 315 315
350 350 350 351 345 350 339 336 336 334 339 342 335 336 333 335 333 329 331 330 329 329 332 330 327 330 331 332 327 326 324 322 320 319 317 315 314 312
353 352 351 351 349 348 349 347 344 344 340 340 344 344 341 340 335 334 332 333 332 330 333 328 328 330 331 332 329 328 323 321 320 318 316 314 312 309
353 353 353 352 342 332 347 347 348 348 339 331 332 334 332 330 333 334 331 327 328 330 332 332 327 329 329 331 331 327 323 319 317 317 316 314 310 307
352 354 337 347 333 328 344 348 346 348 350 349 344 335 331 336 328 333 337 332 330 329 332 331 326 327 325 328 328 327 325 317 314 314 314 313 307 306
351 352 354 330 324 322 325 352 349 350 349 350 351 350 349 344 342 341 337 337 333 332 334 334 331 329 329 325 325 326 326 319 319 314 309 308 306 307
353 355 353 327 320 320 323 331 326 329 350 352 351 351 350 349 346 344 342 338 340 339 341 337 333 331 328 318 318 318 319 318 318 315 312 307 305 306
357 349 332 321 318 319 318 321 321 339 344 347 348 350 352 354 355 349 343 342 341 341 341 336 336 334 331 325 316 317 313 313 313 310 308 307 305 304
336 345 339 332 328 334 333 328 329 337 341 344 346 349 351 351 351 349 343 339 337 338 341 340 337 336 330 328 322 316 313 308 311 308 306 304 304 304
340 344 345 347 349 351 350 345 339 337 336 340 341 343 344 345 346 348 343 339 336 336 337 339 338 337 334 330 322 317 310 306 310 305 303 301 302 303
337 342 343 343 343 343 342 344 342 338 340 340 340 339 339 340 341 342 343 339 336 335 335 336 333 325 317 316 319 312 308 306 306 305 302 301 300 300
340 335 334 334 334 335 337 341 343 342 340 337 337 337 335 329 330 329 330 330 325 324 324 331 323 319 314 309 313 313 308 306 306 302 301 300 300 299
331 330 332 333 332 333 330 328 328 328 329 330 331 330 328 328 324 327 326 324 323 323 321 321 322 321 317 312 309 311 306 307 306 303 299 299 302 305
329 326 322 321 321 321 321 321 322 326 327 330 329 328 325 319 320 319 320 314 317 323 321 320 320 316 312 311 309 306 305 305 308 306 299 297 296 297
317 317 317 318 319 319 318 318 323 326 326 326 328 327 322 321 320 323 323 323 322 322 318 315 317 315 310 309 304 304 303 302 305 308 307 304 297 294
318 319 319 320 320 320 321 326 326 327 321 322 320 321 324 326 326 325 324 323 321 320 318 316 316 311 305 305 302 302 303 302 301 301 301 306 306 306

GFSNE_sfc_thetae_054.txt.gz
Theta_e
349 347 342 342 336 336 335 335 334 328 330 337 336 340 340 341 344 344 345 342 340 337 335 335 337 338 340 341 341 341 340 339 338 339 339 338 335 332
347 347 347 345 342 341 338 334 332 332 328 333 337 339 339 339 341 344 342 340 338 337 335 334 334 336 337 337 338 337 337 337 337 337 338 337 334 331
351 348 348 348 346 344 340 338 333 331 329 333 332 338 340 341 341 343 341 340 339 335 335 333 332 333 334 334 334 334 335 335 335 336 336 336 333 331
352 352 351 350 348 348 344 341 338 334 332 332 334 335 338 341 341 341 340 339 338 334 332 332 331 330 330 330 330 330 330 330 331 333 333 334 332 330
353 352 352 352 351 350 347 344 341 339 334 332 334 333 336 338 338 338 339 341 340 336 330 329 330 330 328 326 326 325 324 324 325 326 327 329 330 328
354 354 353 353 352 352 351 349 346 342 338 335 336 335 336 339 337 336 335 335 337 338 336 333 332 331 330 326 325 325 321 319 320 320 321 322 323 324
353 353 354 353 347 348 352 352 350 345 343 337 338 337 336 336 335 339 334 338 338 339 337 338 338 338 337 331 333 331 324 321 319 318 318 317 317 319
351 352 354 348 347 339 339 341 349 348 346 344 342 341 342 341 340 337 335 334 332 339 336 335 337 337 338 340 334 330 326 323 321 319 317 316 315 316
353 353 353 353 348 354 341 336 337 335 340 350 345 344 344 346 344 340 337 336 335 340 337 334 336 333 338 338 329 327 325 323 321 321 319 316 315 314
354 354 354 354 354 352 353 352 350 349 345 345 349 351 352 352 350 346 343 339 338 339 338 329 338 334 338 336 329 327 324 322 320 319 317 315 312 311
355 356 355 355 342 332 351 351 351 353 341 332 333 334 332 331 337 348 341 333 331 334 336 333 335 333 335 337 336 328 323 321 319 320 317 314 310 309
354 355 336 348 333 327 347 351 349 352 354 355 351 339 334 340 330 337 341 338 335 332 340 333 334 334 328 334 335 334 328 318 316 316 316 313 309 317
351 352 355 329 323 322 324 354 351 353 352 353 355 355 354 353 350 345 342 341 340 338 344 337 336 334 330 330 332 334 333 325 323 317 311 310 307 314
352 355 355 327 320 319 322 329 326 327 349 351 351 352 352 354 356 355 350 345 344 345 349 340 335 334 331 329 327 329 331 328 327 325 322 310 306 306
356 348 332 321 318 320 318 320 320 338 342 344 346 349 353 356 356 355 356 348 346 343 342 344 339 337 335 331 330 323 323 325 328 324 318 315 312 311
334 344 338 333 329 336 336 330 331 336 339 343 345 349 351 350 349 350 349 347 341 342 344 342 341 339 336 336 333 322 324 320 325 321 317 314 313 312
341 349 347 348 350 351 352 350 348 342 338 341 342 343 344 344 345 350 346 345 339 337 336 344 346 342 340 332 332 327 323 319 318 311 311 308 309 310
339 347 346 346 346 348 350 350 350 341 343 342 342 342 341 341 341 339 338 336 335 334 327 327 327 323 319 318 319 314 312 311 310 312 311 308 305 307
348 347 344 346 347 345 345 346 344 343 344 343 341 338 339 337 332 332 333 333 330 326 323 326 322 320 315 312 312 313 310 309 307 307 308 308 307 306
339 339 339 339 339 340 338 337 337 336 335 336 335 335 336 331 331 331 332 331 330 326 325 328 326 322 319 314 311 311 307 312 312 307 303 304 306 307
333 332 330 333 333 333 332 331 331 330 328 331 333 334 332 330 330 329 329 315 319 328 323 323 318 314 319 321 311 309 309 305 312 310 306 306 305 305
327 329 328 328 329 329 329 329 328 327 329 329 329 331 333 329 328 328 330 326 328 327 321 318 319 319 318 320 314 312 309 309 307 307 307 307 307 303
327 328 329 329 330 330 329 328 329 330 329 331 330 331 331 330 332 331 329 329 326 322 320 317 317 313 311 316 313 311 306 308 309 308 309 306 307 306

GFSNE_sfc_thetae_057.txt.gz
Theta_e
359 359 353 351 349 347 345 343 338 332 334 344 342 352 350 350 351 352 353 345 341 340 336 335 337 338 340 341 342 343 343 343 341 340 339 339 338 335
358 360 360 355 354 351 348 345 343 339 334 342 342 347 350 348 350 351 351 346 341 339 337 334 334 336 337 338 338 339 339 340 338 338 338 338 338 335
361 360 359 361 356 355 352 350 346 344 338 341 345 348 350 352 351 352 351 351 348 337 336 335 333 333 335 335 335 335 336 336 336 336 337 338 338 335
361 362 359 358 361 361 356 356 352 352 344 347 348 346 351 355 354 353 350 347 348 341 335 333 332 331 330 331 331 331 331 331 332 333 334 336 336 334
362 362 362 361 360 358 359 356 355 354 352 346 346 348 347 347 349 352 351 353 349 342 333 331 331 330 329 327 327 325 325 325 326 326 328 330 333 333
362 362 362 362 361 362 360 360 359 356 356 351 349 348 350 355 349 344 344 347 346 346 342 338 336 332 330 327 326 326 322 320 320 321 322 324 326 328
361 362 363 360 350 354 359 363 364 356 353 349 347 347 346 346 346 347 345 346 349 350 347 347 346 343 341 330 333 331 325 321 319 318 318 319 320 321
360 361 362 353 352 340 339 341 354 362 357 352 350 349 357 354 353 351 349 346 344 354 350 344 346 344 351 348 337 331 326 323 320 318 317 317 317 317
361 360 359 358 354 361 345 336 337 335 340 359 358 359 359 362 362 358 356 353 350 353 353 346 349 346 347 350 332 330 328 324 321 319 318 317 316 315
362 363 364 363 363 360 360 360 361 362 358 352 357 359 364 366 367 363 363 360 357 355 357 342 349 349 355 352 335 331 328 323 320 318 318 315 313 312
362 363 363 363 347 333 358 359 362 363 347 335 337 335 333 331 339 353 347 345 341 346 354 347 344 345 350 347 351 332 326 322 319 319 318 315 312 310
361 364 338 352 334 327 356 358 358 358 361 363 364 347 337 347 331 344 348 343 343 342 352 343 344 344 336 344 344 344 340 320 318 318 317 316 312 321
354 355 358 329 324 323 324 360 358 358 356 361 361 361 361 362 361 362 351 345 342 341 352 344 343 341 337 334 335 340 342 335 326 321 315 313 310 320
357 359 361 327 320 318 324 330 326 329 355 356 355 354 355 357 361 361 360 352 348 348 358 354 342 341 338 336 334 336 336 335 328 328 325 315 310 313
359 350 332 321 317 323 319 321 320 340 343 345 347 351 355 359 358 356 357 358 359 358 352 354 350 346 343 337 335 336 329 332 331 330 325 316 314 315
335 349 345 334 330 340 344 334 342 347 345 349 351 350 353 352 352 353 350 351 349 349 354 355 354 350 340 339 337 336 334 325 328 325 321 317 316 317
346 357 354 354 355 356 355 353 352 346 340 342 343 345 348 348 347 349 348 344 339 338 338 337 341 338 326 319 323 327 329 323 325 318 318 315 315 317
345 354 353 355 353 353 353 353 353 345 351 353 353 349 346 345 345 343 342 338 335 335 332 333 331 329 325 323 316 316 317 317 320 320 319 317 314 316
350 353 353 353 352 351 352 352 352 355 354 350 351 348 346 342 339 338 338 336 335 334 333 332 327 324 323 315 317 311 315 316 317 318 319 323 320 314
348 353 351 351 347 347 347 346 349 349 347 345 344 341 340 339 336 336 336 335 334 334 332 331 327 328 327 320 312 311 308 316 314 309 312 315 314 311
342 338 338 339 340 340 343 345 344 342 339 337 337 337 337 335 336 336 336 319 323 331 333 331 328 317 331 329 321 312 312 306 316 318 317 317 314 313
335 335 335 335 336 340 339 339 337 335 337 335 334 334 333 336 336 335 334 332 331 333 334 333 326 326 324 328 324 320 315 315 308 308 308 310 317 312
332 333 334 336 338 338 336 336 336 336 336 334 333 333 337 334 335 336 335 333 333 333 332 327 324 318 326 329 323 323 321 318 317 317 316 307 308 309

GFSNE_sfc_thetae_060.txt.gz
Theta_e
363 361 356 349 349 346 347 345 340 334 336 347 344 355 352 351 354 355 355 347 342 340 339 337 337 339 341 342 343 344 346 346 346 344 342 341 340 341
358 362 363 354 353 352 350 348 345 341 336 341 343 349 353 352 351 356 355 349 342 340 338 336 335 336 337 338 339 339 340 341 341 341 339 339 340 341
364 362 362 365 357 353 352 350 348 346 340 342 345 352 359 357 356 357 355 355 352 339 338 336 335 334 334 335 335 336 336 337 338 338 338 338 339 340
363 363 363 359 363 363 356 360 355 357 347 354 352 348 357 362 360 358 355 351 351 343 337 336 334 333 332 331 331 332 331 332 333 334 335 336 337 338
362 363 363 364 364 360 360 356 356 357 358 353 351 352 352 354 357 362 361 360 354 346 335 334 332 332 330 328 327 326 326 326 327 328 329 331 334 336
363 364 364 365 365 366 364 365 364 360 358 352 349 348 349 356 352 348 349 351 349 350 346 340 340 335 332 328 327 327 323 322 321 322 323 324 328 331
362 364 365 362 352 356 362 370 372 362 355 351 348 347 347 347 350 350 350 352 356 357 354 355 355 354 351 332 335 332 327 324 321 319 320 319 321 324
360 363 365 356 354 342 340 341 351 367 367 356 352 350 364 361 357 355 353 351 351 360 359 356 359 356 357 357 342 332 330 326 324 320 318 318 319 320
365 362 359 357 356 363 345 338 340 337 339 359 362 363 364 368 370 369 364 362 358 361 365 356 361 358 361 359 336 331 327 325 324 322 318 317 318 317
364 364 367 366 364 360 361 361 362 365 363 357 359 360 363 366 368 366 369 365 363 362 366 353 359 358 360 360 339 332 328 325 322 320 317 316 315 314
362 365 366 367 349 335 360 361 363 363 346 334 337 337 336 334 342 357 352 352 351 354 360 357 357 355 356 357 357 335 328 323 321 319 318 315 312 312
364 368 340 352 335 328 360 360 361 358 359 363 365 353 337 347 332 352 358 353 352 349 363 351 352 353 344 352 352 349 347 322 318 316 317 315 312 322
353 353 356 330 327 325 324 362 359 356 356 364 365 367 367 368 366 368 370 366 353 349 357 356 349 347 344 342 347 346 346 345 340 320 312 313 311 321
356 355 360 324 318 319 326 331 325 331 358 357 359 360 361 362 364 367 371 364 356 353 356 362 355 353 348 343 341 349 344 344 339 333 326 315 311 314
360 350 328 321 315 323 318 322 321 354 358 357 357 358 358 361 365 360 359 361 361 363 362 363 357 355 349 343 338 334 332 337 339 332 327 315 320 321
340 352 348 337 329 340 347 344 356 360 359 357 355 357 360 357 353 357 353 352 352 347 354 354 350 345 336 332 326 328 330 329 334 330 323 319 322 319
351 360 360 359 358 358 359 363 364 363 356 358 353 349 349 350 354 354 349 350 344 341 342 341 347 339 327 326 324 319 320 322 321 318 317 316 318 319
353 360 359 356 355 357 359 359 361 353 355 351 349 352 353 353 351 351 348 343 341 340 339 339 337 337 332 320 321 319 320 319 321 321 321 318 318 322
358 360 360 362 362 360 359 359 357 357 358 355 357 354 352 349 346 345 342 342 340 340 339 339 337 334 330 325 323 311 316 321 321 319 320 320 318 319
354 357 359 360 357 355 357 356 355 354 351 352 353 351 348 345 343 341 341 340 340 339 338 341 337 336 330 327 320 317 305 319 322 324 323 323 322 314
354 354 353 349 349 351 351 350 350 351 351 351 347 346 344 342 341 341 340 324 325 336 336 336 336 320 333 331 325 317 316 306 318 326 327 323 320 319
359 353 348 345 350 345 345 346 347 344 344 342 341 340 341 340 339 340 339 337 332 335 335 340 337 335 334 332 326 325 315 313 310 308 308 311 323 318
350 351 349 347 345 346 346 345 343 341 341 341 340 339 340 339 339 339 336 335 334 333 334 335 335 334 331 332 326 327 326 323 321 314 316 307 309 310

GFSNE_sfc_thetae_063.txt.gz
Theta_e
364 364 357 350 347 346 345 344 340 335 337 350 345 356 352 351 354 356 359 348 342 340 339 339 339 339 341 342 344 344 346 346 347 348 347 346 344 342
356 367 366 352 353 350 348 347 346 341 336 342 344 350 354 351 354 356 355 349 343 340 338 337 337 337 337 339 339 339 341 342 343 344 343 342 341 342
367 363 367 371 357 352 351 350 347 346 340 343 345 355 369 367 362 363 358 361 355 339 338 337 335 335 335 335 335 336 336 337 339 340 341 340 339 340
364 368 362 357 369 369 358 369 357 361 347 355 354 352 362 366 366 367 357 355 356 348 337 336 334 334 333 332 331 331 331 332 333 335 336 338 338 338
365 366 365 367 369 361 365 357 353 357 357 352 353 356 357 356 360 366 366 364 360 349 340 335 334 333 332 330 328 327 325 325 326 327 329 332 334 336
366 366 366 367 369 371 367 371 366 362 357 354 353 352 354 362 358 352 352 356 356 355 350 345 343 336 333 329 329 328 324 321 320 321 323 325 328 331
366 365 366 363 352 359 362 368 369 363 356 353 352 352 351 351 354 355 353 357 361 361 359 360 358 360 357 333 338 333 327 323 321 321 320 321 322 324
365 368 369 357 354 343 341 342 352 366 368 356 353 351 359 358 358 356 358 355 354 364 363 363 366 364 365 364 346 334 328 325 323 322 321 319 320 321
366 367 364 356 358 368 347 340 342 338 341 360 359 360 361 365 368 367 361 361 359 365 365 361 364 360 365 361 340 333 327 324 324 323 321 318 318 319
366 367 368 366 367 367 369 366 365 367 363 357 360 362 366 369 369 367 367 365 365 365 367 356 362 361 364 367 346 338 327 324 323 322 319 318 314 315
364 365 365 368 351 337 363 361 362 364 348 332 334 336 336 335 343 354 351 354 355 357 363 358 360 361 360 362 360 337 328 323 320 320 319 317 313 312
365 367 340 353 337 329 363 363 361 363 365 364 365 356 338 348 332 351 360 357 357 355 369 357 357 353 346 355 356 356 354 328 319 317 316 316 311 317
354 354 357 331 327 325 326 362 360 362 357 362 363 365 367 371 371 368 371 368 362 359 363 357 353 356 353 350 352 353 352 349 351 343 311 311 310 318
356 350 353 324 320 321 326 330 326 330 355 357 358 360 361 361 363 372 375 374 370 362 365 364 355 353 349 343 339 340 338 340 341 345 336 312 309 311
358 343 327 320 315 321 318 322 322 354 357 358 359 361 362 363 372 369 367 365 362 363 364 369 361 353 344 337 333 331 327 329 335 332 325 316 313 319
342 352 347 337 325 340 349 338 355 361 360 361 362 361 363 364 362 361 354 354 354 356 366 359 354 348 338 335 332 328 327 320 323 323 317 317 320 321
351 359 357 357 358 360 362 364 364 365 362 362 360 361 359 355 353 358 355 355 351 347 345 348 351 345 335 333 328 326 321 321 320 319 320 318 319 319
351 357 358 359 359 360 360 360 362 358 365 363 361 356 354 355 357 355 354 353 346 344 343 343 342 339 333 325 324 319 321 321 322 321 319 316 315 318
361 360 359 359 362 361 359 359 359 362 367 362 359 357 358 356 351 350 350 346 343 343 344 343 340 336 332 329 325 313 321 323 323 321 322 321 318 319
360 359 359 361 361 364 364 362 362 363 362 360 359 357 358 354 351 348 346 344 342 343 341 342 340 336 332 329 327 323 306 325 325 322 324 324 320 314
360 359 361 361 362 364 361 360 363 361 357 355 355 356 356 353 347 344 342 322 330 341 337 338 340 329 336 334 328 325 325 306 312 329 327 324 321 322
366 364 362 362 360 357 354 357 355 351 350 350 351 349 346 343 341 341 341 340 341 339 338 340 339 336 335 333 331 328 325 326 310 309 309 314 326 319
352 357 350 350 352 348 351 350 349 349 351 347 344 343 342 340 341 341 340 341 339 337 338 336 337 337 335 333 329 329 327 325 326 323 323 308 310 312

GFSNE_sfc_thetae_066.txt.gz
Theta_e
365 365 364 357 355 352 352 350 345 337 339 349 350 357 356 355 358 352 352 347 341 339 338 338 339 340 341 342 343 343 345 345 345 345 346 348 349 348
361 363 363 357 356 357 354 354 351 347 339 346 349 355 355 350 357 356 355 351 343 340 337 336 336 338 338 338 339 339 340 341 342 343 344 345 345 345
364 364 362 362 361 360 358 355 352 352 344 346 352 354 360 360 356 358 360 357 355 339 338 337 335 335 336 336 336 336 336 337 338 340 341 342 342 342
362 363 363 361 364 363 361 360 361 363 356 349 354 353 353 356 360 362 360 356 354 350 338 336 334 334 333 333 333 333 332 332 333 334 336 338 340 340
363 364 363 365 364 362 362 357 355 357 356 352 349 356 357 360 357 361 362 359 357 351 343 338 335 333 332 330 329 328 326 326 327 328 330 332 335 337
365 363 365 364 364 365 363 362 362 361 359 356 352 351 353 355 357 354 353 358 356 355 352 346 341 338 334 330 329 328 324 321 321 322 325 326 329 331
363 363 364 362 354 357 362 364 363 360 358 356 353 352 352 353 351 353 351 355 358 358 356 358 359 361 359 339 337 335 328 325 322 319 320 321 323 325
360 361 365 353 351 342 340 342 351 359 357 357 355 352 353 355 357 355 353 350 348 359 361 359 362 360 363 363 347 334 329 326 323 321 320 319 319 322
362 361 361 359 353 362 345 339 340 338 341 355 353 352 351 353 355 356 356 355 354 360 358 354 361 359 363 362 343 338 332 325 322 321 320 318 318 319
360 359 361 360 360 362 362 360 359 359 356 351 351 354 357 360 361 360 359 359 358 358 361 353 359 357 362 362 345 337 335 329 322 320 318 316 314 313
356 358 361 362 347 338 354 354 355 358 347 336 341 340 340 338 345 357 352 346 346 353 361 356 357 357 357 355 357 341 332 328 323 320 318 316 312 310
357 359 339 348 335 328 353 358 355 356 358 359 359 353 338 344 330 340 348 348 352 352 360 354 355 353 346 353 354 355 345 326 324 320 318 314 311 317
353 354 358 332 325 323 326 355 353 354 353 359 360 358 360 364 365 365 362 360 357 355 359 358 353 352 351 348 345 341 336 332 333 331 316 308 309 316
354 356 355 328 322 323 326 330 327 328 353 353 352 353 356 359 361 368 371 368 366 361 364 362 355 352 349 338 333 334 331 329 329 324 328 308 308 310
358 346 325 320 314 316 318 322 321 344 349 351 353 356 360 363 370 368 369 364 360 360 360 360 359 352 342 335 329 329 322 323 323 321 318 313 312 318
340 351 342 339 329 339 345 328 343 355 357 357 358 362 364 364 363 365 359 356 353 354 359 363 351 345 337 334 331 324 322 319 320 320 318 316 319 317
348 356 356 354 352 355 360 363 358 358 358 359 359 360 361 362 357 358 354 355 351 351 351 346 343 333 327 328 325 321 321 321 321 319 319 317 318 318
347 354 354 355 355 355 356 359 362 357 363 365 365 364 359 354 354 356 356 353 348 350 347 347 342 335 326 321 320 320 322 321 322 320 318 315 315 317
354 353 356 359 359 360 362 364 362 364 365 360 362 356 354 354 353 353 352 351 350 348 345 348 340 336 330 327 319 312 322 322 322 320 321 318 315 316
354 358 359 361 361 360 364 362 362 363 364 362 360 360 358 354 351 352 352 351 346 345 343 345 342 337 333 326 324 321 305 324 322 320 320 321 318 316
352 353 355 360 367 365 363 364 362 363 363 362 360 354 353 354 352 349 344 327 330 342 339 339 335 333 333 331 324 322 322 306 313 325 322 319 317 317
358 358 364 362 363 365 359 363 360 357 355 354 352 349 350 345 340 341 342 340 341 340 341 337 338 338 335 332 329 325 323 321 309 309 311 316 321 316
355 359 360 360 353 356 358 353 354 350 353 352 346 345 346 343 344 342 339 339 339 339 339 337 337 337 334 332 329 326 324 323 323 319 319 308 311 312

GFSNE_sfc_thetae_069.txt.gz
Theta_e
351 349 350 348 345 342 337 337 331 325 327 336 339 344 342 344 348 348 343 344 341 339 337 337 339 340 342 343 343 343 344 344 345 345 345 346 348 351
349 350 348 348 344 348 340 338 337 332 328 335 336 339 347 346 348 347 345 347 344 340 337 336 336 337 338 339 340 340 340 341 341 342 342 342 344 346
350 351 351 350 346 348 352 348 342 338 332 334 340 344 345 346 349 348 348 347 346 340 339 337 335 336 336 337 337 337 337 338 338 339 340 341 342 343
351 351 352 354 350 349 351 347 348 349 342 337 341 341 341 344 345 347 352 357 351 349 341 338 336 334 333 333 332 333 333 333 333 334 336 338 339 340
351 352 352 352 349 350 348 347 346 346 346 343 340 345 348 349 349 348 351 353 356 350 341 338 337 335 333 330 329 327 325 326 327 328 330 332 334 337
355 355 355 354 353 353 354 352 351 349 349 347 346 345 345 349 347 347 344 346 347 355 352 346 343 343 336 331 329 329 324 321 320 321 323 325 328 331
353 354 355 354 352 352 356 353 353 350 350 348 347 346 344 342 343 346 345 347 348 348 350 350 354 359 358 349 342 338 329 326 322 319 318 319 321 324
354 354 356 351 350 343 343 344 353 353 350 349 347 345 344 345 346 346 345 343 342 350 351 354 355 356 359 358 346 335 332 327 324 321 319 317 317 319
354 354 354 357 349 353 343 337 338 337 341 349 345 346 346 348 347 345 346 348 348 353 351 351 355 354 358 358 343 337 335 329 325 322 320 318 316 315
353 355 354 353 351 350 352 352 350 348 346 344 344 349 350 352 350 352 351 351 354 357 349 345 354 352 354 356 343 340 330 324 322 321 320 317 313 311
351 352 352 353 344 337 348 349 350 353 348 335 337 337 337 336 342 350 350 347 346 344 350 350 350 350 350 350 351 332 324 320 320 319 319 316 311 309
347 348 337 348 336 332 347 348 344 345 345 347 347 339 333 340 333 342 348 342 341 345 352 348 347 348 345 345 345 331 329 320 319 316 315 313 309 317
346 347 350 330 323 321 325 347 348 351 347 349 351 353 352 352 355 348 343 346 348 349 352 355 348 350 346 342 340 329 325 323 322 321 316 307 307 315
348 349 348 329 322 322 324 328 326 327 343 346 345 345 345 348 353 355 357 359 359 357 359 358 352 349 343 334 326 326 321 320 321 321 320 310 310 310
354 345 334 325 318 319 320 323 322 333 341 341 343 345 348 353 355 357 357 356 355 355 357 353 352 347 336 327 323 317 315 317 321 320 319 315 314 316
338 342 332 335 335 338 336 322 328 337 340 342 344 349 353 353 356 357 351 349 347 348 346 345 347 336 329 325 321 315 315 315 321 320 320 318 316 314
342 349 346 346 348 346 346 348 335 341 344 349 351 351 352 352 350 350 348 346 345 344 346 333 322 322 321 323 316 314 316 318 320 318 318 315 315 315
339 347 346 348 347 347 346 347 353 347 349 352 353 353 351 352 350 350 347 348 345 343 343 336 325 322 318 317 320 315 315 314 318 318 318 314 313 315
344 347 348 349 349 350 350 349 349 355 357 356 355 354 351 350 348 346 349 349 344 343 342 336 332 327 323 320 314 313 314 315 317 318 318 316 314 315
347 346 347 347 351 353 353 354 353 353 354 353 352 352 349 348 347 346 345 344 344 339 334 335 330 328 326 323 316 315 308 317 316 317 317 318 314 315
347 347 348 348 350 351 351 352 351 349 351 352 353 351 349 346 344 345 346 330 329 330 331 330 329 327 325 322 317 313 315 307 316 317 315 317 315 314
349 349 347 345 338 333 338 349 348 345 344 345 346 347 346 345 340 336 334 331 330 331 331 327 327 325 324 323 321 316 314 312 307 310 316 317 314 310
340 347 348 343 345 348 347 347 346 346 345 344 342 341 341 336 333 332 332 331 330 330 329 328 330 330 325 326 324 319 316 315 312 308 309 308 310 311

GFSNE_sfc_thetae_072.txt.gz
Theta_e
348 345 346 346 342 339 337 332 327 321 323 331 333 340 340 338 343 345 346 343 343 341 338 337 338 339 341 343 344 345 345 345 344 345 345 346 347 349
347 345 344 345 343 342 343 334 332 327 324 331 333 336 345 344 346 346 344 345 342 340 338 336 336 337 338 339 340 340 341 342 341 341 342 342 343 344
346 345 345 347 344 343 346 346 341 335 330 332 335 341 343 342 342 343 346 344 345 341 340 338 336 336 336 337 337 337 337 338 338 339 340 341 341 341
346 346 347 352 347 344 346 345 343 343 338 336 336 338 339 343 346 346 350 353 350 349 341 338 336 335 334 333 332 332 331 332 333 334 336 337 339 340
348 347 347 348 347 344 345 345 344 345 342 340 342 342 346 347 346 345 345 347 352 349 342 340 337 335 333 331 328 326 324 324 325 326 328 330 333 336
349 348 349 349 348 348 348 347 347 347 345 342 341 342 343 346 344 343 343 343 345 352 348 343 340 342 341 338 336 334 326 322 320 319 320 322 325 328
350 352 352 352 348 347 351 350 349 346 345 344 343 343 344 343 343 344 342 345 344 344 346 348 351 355 355 348 349 341 333 327 322 321 319 317 318 320
349 349 351 349 347 342 341 343 349 349 347 345 346 346 347 342 342 342 340 338 338 348 346 351 353 353 354 356 342 336 327 324 322 321 320 319 317 317
351 351 351 355 348 351 341 337 336 337 342 351 347 346 344 346 343 341 342 341 342 349 348 349 349 348 355 356 337 326 324 322 321 319 318 317 316 314
351 353 352 352 349 348 348 348 347 347 341 341 343 346 347 349 347 349 347 345 348 352 351 344 348 349 353 353 328 325 323 320 319 317 316 313 310 309
347 349 352 352 341 333 347 346 347 348 343 332 333 333 332 332 338 343 345 344 343 343 344 345 348 346 348 346 331 324 320 318 316 316 314 310 308 310
348 347 335 346 333 328 345 347 345 347 345 342 343 336 331 338 332 340 346 342 342 339 348 350 344 347 347 342 332 325 323 317 315 314 312 309 308 319
344 345 347 329 324 321 325 347 345 346 343 344 346 348 350 350 351 347 342 344 341 342 349 353 347 348 347 344 336 324 320 319 318 319 314 308 308 314
349 348 346 325 319 319 320 326 325 326 339 341 342 345 346 346 348 348 350 346 350 353 355 353 349 349 344 337 328 323 318 317 316 320 318 312 311 309
355 345 330 322 317 320 319 322 320 329 336 337 340 343 346 347 347 349 353 357 357 356 354 350 351 346 341 331 322 316 314 314 316 320 318 317 316 316
340 345 338 331 328 333 329 325 326 332 337 338 340 343 342 345 347 351 355 353 349 345 337 331 346 341 328 323 319 314 313 312 315 319 318 315 314 314
340 347 338 336 339 339 340 342 336 331 333 337 338 340 343 346 347 350 349 347 344 341 338 325 320 320 321 320 315 313 313 312 317 317 316 314 314 313
333 346 345 346 345 346 347 345 347 340 341 341 343 345 347 348 350 350 349 343 342 342 341 327 321 320 319 318 320 313 312 311 314 317 317 314 312 314
348 345 346 346 347 347 348 347 347 348 349 346 347 349 350 351 345 346 343 343 342 342 341 332 324 325 320 319 315 316 313 313 312 315 314 315 314 314
346 346 346 347 347 347 348 348 348 347 350 349 349 350 348 346 344 344 343 343 342 339 337 332 329 328 325 323 318 314 310 314 312 312 315 315 313 314
343 347 347 349 348 348 348 349 349 346 344 346 345 343 345 344 344 343 342 325 331 336 331 330 332 326 322 319 316 312 315 308 312 315 314 316 314 312
344 346 346 343 342 336 332 336 341 340 342 344 344 344 339 334 331 341 336 332 330 330 330 326 321 322 321 321 318 315 313 314 310 308 313 315 314 311
334 340 339 335 333 334 336 334 333 339 340 343 340 332 333 333 338 332 330 330 329 328 324 322 322 323 326 325 321 317 313 312 312 309 310 312 311 310

GFSNE_sfc_thetae_075.txt.gz
Theta_e
345 343 342 344 341 337 337 329 325 320 321 328 332 337 338 340 340 340 341 343 342 341 339 339 339 340 341 341 343 344 345 345 345 345 346 347 348 348
346 344 343 343 342 339 341 332 330 325 323 328 332 334 338 344 345 344 344 344 343 340 339 337 338 339 339 339 339 340 340 341 342 342 342 343 343 345
343 343 342 342 343 341 341 342 338 333 329 333 332 339 340 340 343 344 346 345 345 341 340 339 337 336 337 337 337 337 337 338 338 338 339 340 341 342
345 343 343 347 345 343 342 341 340 339 336 334 335 338 340 343 346 345 350 351 348 347 341 339 337 336 334 333 332 331 330 331 331 332 334 335 337 339
346 345 344 344 343 343 342 342 342 343 340 337 340 341 343 344 344 346 345 346 349 347 342 339 338 337 335 333 331 328 325 323 323 323 324 326 329 333
347 347 347 346 345 344 344 343 344 343 343 341 339 338 340 344 343 342 345 343 346 349 348 342 340 342 340 336 335 334 324 321 320 320 320 320 322 324
347 348 348 348 345 344 347 345 345 344 342 341 339 340 341 341 341 341 340 342 343 343 344 346 350 354 354 345 347 331 324 322 319 318 317 316 316 318
347 347 348 347 345 340 339 340 346 345 342 341 341 342 343 342 341 340 337 336 340 345 345 348 352 352 350 352 330 325 323 321 320 319 317 315 315 314
347 347 347 351 345 349 341 336 336 336 339 347 345 345 344 345 341 337 338 338 338 348 345 346 348 346 350 332 326 324 321 319 318 318 315 313 312 311
348 349 348 348 347 348 348 347 347 346 342 341 344 349 350 350 343 344 344 342 343 347 348 345 345 346 346 327 326 323 321 318 317 315 313 311 310 309
347 347 349 350 340 332 347 345 345 346 340 331 332 332 331 330 333 340 341 338 340 341 344 344 344 348 347 332 324 323 319 316 315 314 314 311 309 311
349 348 333 343 331 326 342 345 343 346 346 344 342 336 331 337 330 338 343 340 340 339 344 345 348 347 343 343 328 322 320 316 314 313 312 309 308 319
347 347 348 327 323 321 323 347 344 345 342 341 340 340 343 345 347 343 341 343 340 340 345 352 346 344 347 345 336 321 317 315 317 319 313 308 307 313
347 348 346 324 320 318 319 324 323 325 340 339 337 340 342 343 347 348 348 345 347 348 350 352 351 347 345 342 335 322 315 315 318 319 318 313 310 309
351 344 330 321 316 318 318 321 320 333 337 334 336 338 341 345 344 344 345 347 348 349 352 351 351 347 346 341 326 318 314 313 317 319 317 315 315 316
337 344 338 331 327 331 329 325 328 333 334 336 338 341 340 339 340 342 344 348 349 347 335 329 337 347 332 323 321 315 313 311 317 318 317 315 314 314
338 345 347 338 343 342 339 339 337 330 331 334 334 334 335 337 339 345 349 348 349 343 337 326 321 323 324 321 317 314 312 310 318 317 316 313 313 314
334 346 346 347 345 346 345 343 341 335 336 336 335 337 338 339 342 346 347 348 345 340 340 327 321 322 321 320 321 314 312 311 316 317 317 313 312 314
346 346 346 348 347 346 346 346 345 345 346 344 342 341 343 344 342 347 344 342 339 340 339 330 322 323 320 320 318 316 314 312 311 312 316 315 313 314
346 348 348 347 348 347 347 347 347 347 345 346 344 345 346 347 345 343 341 341 339 338 338 335 329 326 327 327 322 316 310 313 312 311 314 314 313 313
337 345 347 348 347 348 348 348 348 346 345 347 349 348 347 344 339 337 334 320 323 336 335 336 337 328 326 320 318 315 316 308 313 313 313 314 313 313
341 341 346 348 347 345 345 346 344 340 344 345 344 337 339 337 333 329 330 328 330 333 333 333 327 325 322 322 321 318 315 314 309 309 314 315 315 312
334 338 339 338 336 333 331 333 334 334 335 338 340 338 333 328 329 334 335 333 331 328 328 326 323 322 322 322 322 321 318 316 313 311 312 312 313 312

GFSNE_sfc_thetae_078.txt.gz
Theta_e
351 350 349 349 348 345 345 338 336 333 333 340 342 348 349 353 352 353 352 346 342 341 339 339 339 341 342 343 343 343 344 344 344 345 345 347 349 351
350 351 350 350 349 347 346 341 338 336 334 337 342 344 349 351 353 356 355 346 345 341 339 339 339 340 340 341 340 340 341 341 341 341 341 342 343 345
350 350 350 350 349 349 347 348 345 339 339 345 340 347 352 354 358 358 357 359 357 344 341 340 337 337 338 338 337 337 337 337 337 337 338 339 340 341
350 349 349 349 350 352 350 349 348 347 345 344 346 347 352 355 356 356 358 358 357 348 340 338 336 336 335 334 333 332 330 329 330 330 330 332 334 336
350 350 351 350 350 350 350 349 349 349 348 345 346 351 352 353 355 358 358 359 356 348 341 340 338 337 335 333 330 327 323 323 322 322 323 324 326 328
352 352 352 351 352 352 350 351 351 349 350 349 349 349 350 353 353 350 353 357 354 354 351 344 340 341 340 335 330 325 320 318 317 317 317 316 317 320
351 352 353 352 345 348 353 354 352 351 351 350 349 349 350 351 351 354 350 351 352 354 354 358 359 360 359 346 331 326 322 320 318 318 316 314 314 316
352 353 354 348 347 338 337 339 350 354 353 350 351 348 352 351 354 351 349 347 345 357 353 353 359 358 357 340 326 323 321 320 319 317 315 314 314 314
353 353 351 352 348 354 343 336 336 335 340 355 352 352 352 355 355 353 350 347 347 354 353 350 358 356 352 332 324 322 320 319 317 316 316 314 312 312
352 352 352 353 352 353 353 353 353 354 350 346 349 354 357 358 357 355 352 350 352 354 356 348 357 354 336 332 324 323 320 318 317 315 315 312 310 310
352 353 353 352 340 331 352 352 353 353 342 331 334 334 332 331 337 347 347 347 346 349 355 353 354 354 356 337 327 322 319 315 315 314 314 311 309 312
351 353 333 346 331 326 348 351 349 351 353 353 351 340 333 341 328 343 348 345 347 348 355 352 354 352 357 347 332 327 328 316 315 312 312 310 307 324
347 348 352 326 322 319 324 351 348 351 348 350 352 351 350 350 351 348 349 350 349 350 357 356 352 356 353 355 339 327 326 324 325 324 314 309 307 313
346 348 348 323 318 318 320 325 323 325 348 349 348 347 348 350 352 354 357 353 356 357 361 359 354 353 352 347 346 332 326 324 324 324 321 315 312 309
350 343 330 320 318 319 317 321 319 335 340 343 342 344 349 350 353 353 354 356 355 354 353 356 353 353 352 350 341 335 328 324 324 322 321 320 319 319
337 344 338 334 329 335 333 327 333 339 341 342 344 346 347 348 348 350 350 352 353 355 342 337 343 349 348 340 333 333 326 326 324 322 322 321 320 319
337 345 347 347 348 348 345 346 345 341 339 342 343 343 344 347 347 349 350 352 353 356 347 335 333 339 341 338 333 330 326 323 324 323 321 318 319 319
336 344 345 346 346 345 347 350 349 342 345 346 344 345 344 344 345 349 352 353 353 354 351 341 331 331 330 329 329 329 324 324 323 323 321 318 318 320
347 347 345 348 348 346 347 347 350 349 350 347 345 345 345 346 344 349 351 352 351 353 351 343 333 334 332 334 329 320 327 323 322 321 321 319 319 320
345 347 348 348 349 349 348 349 351 353 350 350 349 349 348 347 346 346 350 351 352 352 348 345 338 338 339 337 333 329 312 324 322 321 321 321 318 314
339 345 350 352 350 349 349 350 352 353 352 351 349 349 348 347 347 349 350 331 336 348 344 343 343 328 337 332 330 325 320 308 321 325 323 320 318 317
349 346 347 351 352 351 349 350 350 349 350 349 351 350 350 349 348 348 348 342 338 343 342 341 336 333 330 331 333 327 324 322 311 311 315 318 321 318
347 346 346 348 350 350 350 350 350 350 349 348 349 349 348 344 341 341 339 338 337 337 337 335 331 330 332 331 329 330 325 323 318 317 320 312 312 312

GFSNE_sfc_thetae_081.txt.gz
Theta_e
359 360 357 358 358 358 355 352 346 336 338 345 345 356 356 359 361 364 364 350 345 343 340 340 341 342 343 344 344 344 344 344 344 344 344 345 346 347
358 361 360 357 357 357 354 353 350 346 339 349 349 355 360 359 360 364 363 351 349 344 342 340 339 340 341 341 342 341 341 341 341 341 340 341 342 342
360 360 359 362 355 354 356 354 351 350 344 346 354 358 362 364 364 366 362 363 358 347 342 340 337 337 339 338 337 337 337 336 336 336 336 335 334 335
358 359 358 356 359 361 356 360 357 358 351 350 356 354 360 365 365 366 362 358 363 350 342 338 337 336 334 333 332 331 329 328 327 326 326 326 327 328
358 359 359 359 359 357 359 356 356 357 358 354 352 356 359 360 361 363 363 365 360 350 343 341 340 338 335 330 325 322 320 320 320 320 320 322 324 326
361 360 360 360 360 363 360 362 360 358 357 355 353 353 355 360 360 353 352 355 357 359 353 348 343 344 337 327 326 324 320 318 317 318 317 317 319 321
361 361 360 358 349 352 357 360 362 358 355 353 351 351 351 351 353 353 351 354 358 359 358 357 361 364 361 337 331 325 322 320 318 316 316 314 315 316
359 361 362 351 350 339 338 340 350 359 357 352 349 349 355 356 354 353 352 350 346 356 359 355 362 363 364 352 325 324 322 320 319 317 316 315 314 314
362 361 359 357 354 361 343 336 337 335 340 358 356 356 357 359 360 359 358 354 352 356 359 352 361 360 364 335 324 323 320 319 318 317 316 314 312 312
361 362 362 362 361 360 360 359 360 361 359 354 357 360 362 364 365 362 361 360 359 357 364 352 360 359 360 343 324 322 320 319 317 316 315 312 309 310
362 362 362 362 346 334 357 357 359 359 345 335 336 335 335 333 340 356 352 350 347 349 359 357 358 359 362 360 340 322 318 317 315 315 315 311 308 313
357 363 337 352 334 327 354 357 355 355 356 357 359 348 338 349 330 351 356 350 349 347 359 356 355 360 354 361 350 342 338 318 316 313 313 310 307 328
349 349 350 328 325 320 327 359 356 354 350 356 355 356 358 359 359 358 359 356 351 350 355 361 356 358 360 359 358 347 344 339 338 329 312 309 307 315
352 352 353 322 319 318 322 331 325 329 354 351 350 350 352 353 356 359 364 364 361 361 366 364 357 359 359 356 354 348 342 340 337 334 330 315 310 309
354 346 330 317 315 320 318 322 320 346 350 349 348 348 351 354 361 361 362 364 365 365 362 366 361 363 359 357 355 352 346 337 335 334 330 326 325 325
337 347 341 335 331 340 341 331 344 351 351 351 349 351 354 355 355 357 355 356 355 355 364 364 363 361 359 359 357 353 348 340 335 333 330 325 324 326
343 350 351 351 351 351 352 354 355 353 351 352 353 353 353 354 354 358 356 355 352 353 355 357 352 358 358 361 351 352 348 339 337 333 330 326 323 324
340 349 350 351 349 349 348 350 352 349 354 353 353 353 351 352 354 356 356 354 352 352 354 361 352 347 346 350 342 351 346 341 337 334 332 329 325 324
348 350 349 349 349 349 350 349 349 355 361 353 353 353 353 354 352 354 355 355 353 354 354 361 355 350 349 346 350 320 345 341 336 332 332 331 330 327
349 350 353 351 353 353 352 351 353 352 353 355 355 355 356 355 355 354 354 354 353 354 355 358 357 356 351 350 348 348 312 344 336 336 332 332 324 314
343 348 352 354 356 356 358 358 356 353 351 353 352 352 353 355 352 353 353 331 338 355 355 355 354 333 358 350 345 346 341 310 324 337 335 330 327 327
353 353 354 355 358 359 357 359 359 355 352 351 352 352 353 353 349 351 351 349 348 352 355 361 355 353 350 346 344 344 345 340 316 312 313 318 332 329
350 352 350 351 355 355 355 354 354 353 352 352 351 350 353 351 352 354 353 351 354 354 356 352 351 348 345 343 336 341 345 337 330 326 327 318 314 314

GFSNE_sfc_thetae_084.txt.gz
Theta_e
359 361 357 352 354 355 354 351 344 337 340 350 346 355 354 355 358 363 364 352 349 347 343 341 341 343 344 345 345 345 345 345 344 344 344 344 345 346
355 360 361 353 354 354 353 351 349 344 338 344 349 354 360 359 360 364 364 353 352 349 343 341 340 341 342 342 342 342 342 341 340 339 338 335 335 335
360 361 362 363 355 351 352 351 349 348 343 344 348 354 363 363 364 367 365 362 354 348 344 341 339 339 339 338 338 338 336 333 331 331 331 331 332 332
359 361 360 358 362 361 353 359 356 356 349 353 356 350 360 363 365 367 361 357 359 349 344 340 339 338 336 333 330 328 326 326 325 325 326 327 328 330
361 361 360 360 360 356 358 354 354 355 355 351 349 352 353 357 361 367 364 364 355 349 342 340 341 340 332 326 324 322 320 320 321 321 320 322 324 326
364 363 362 360 361 362 359 361 361 359 360 353 350 350 352 360 358 353 349 351 351 354 352 347 343 339 330 325 326 324 321 319 318 317 318 318 319 321
364 365 364 359 349 352 357 365 365 359 352 350 348 349 349 349 354 350 348 349 356 353 351 354 353 362 346 332 332 326 323 321 319 317 316 315 315 317
362 364 365 354 353 342 341 341 351 361 358 350 345 345 360 356 351 349 348 346 344 354 356 350 355 361 366 364 325 324 322 321 319 318 316 315 315 316
364 362 360 358 356 363 344 338 339 335 339 358 357 357 360 360 363 360 363 355 353 354 357 350 356 359 369 338 325 323 321 320 318 317 316 314 313 313
363 362 364 364 361 360 362 361 362 363 360 356 358 359 363 364 365 365 365 364 360 357 364 347 355 357 367 359 326 324 321 320 318 316 315 312 309 311
363 365 367 366 349 334 360 359 361 361 344 336 337 336 334 332 341 357 352 348 344 343 351 347 351 356 361 362 339 324 321 319 317 316 315 313 309 310
358 364 339 353 336 329 362 362 359 356 353 355 358 351 341 353 333 356 357 350 346 341 351 350 350 353 353 365 366 340 340 319 317 314 313 311 309 339
349 349 350 329 327 322 327 364 358 354 348 353 352 352 353 355 358 361 365 358 350 346 347 357 351 354 354 354 363 359 357 342 343 327 310 309 308 316
353 352 355 324 319 320 325 333 325 330 350 345 344 345 346 346 349 356 371 369 365 368 371 370 358 355 354 352 355 359 355 352 347 345 343 315 309 310
355 346 327 318 313 319 318 323 323 349 349 346 344 346 348 347 361 366 368 377 373 371 367 370 365 366 359 356 357 356 358 356 348 344 343 339 337 336
336 345 343 336 327 337 343 333 346 352 351 349 348 350 350 348 347 351 352 353 354 355 372 371 372 368 359 361 360 358 359 352 348 345 343 339 336 335
343 352 353 352 353 355 354 355 355 354 352 353 352 351 349 348 347 350 351 351 350 351 351 358 370 368 363 365 359 360 358 355 353 347 340 338 336 335
345 350 352 354 354 355 354 354 354 349 354 354 353 352 350 348 347 349 350 351 351 352 352 353 356 357 355 357 352 362 358 355 354 347 343 339 338 334
350 355 352 354 355 357 355 353 353 357 364 356 354 353 351 350 347 348 349 351 351 354 354 355 354 355 350 345 353 338 357 356 352 346 344 342 340 340
345 349 354 356 357 356 354 354 357 357 358 358 358 356 353 352 350 351 352 354 353 354 354 356 355 353 354 350 349 362 317 358 351 347 344 344 334 316
345 350 354 356 357 358 359 359 360 359 358 358 358 359 358 358 356 355 355 335 342 358 355 356 360 342 362 364 352 350 345 314 330 352 351 343 339 335
353 355 353 357 359 359 367 366 364 364 366 364 360 358 356 354 353 354 355 356 355 354 355 359 364 360 360 353 351 354 354 340 321 318 316 324 342 335
348 355 356 359 360 362 366 363 362 363 361 358 359 358 357 352 353 353 354 356 355 355 356 356 360 359 355 358 349 356 352 348 344 338 338 317 314 316

GFSNE_sfc_thetae_087.txt.gz
Theta_e
360 362 357 352 348 348 348 347 343 338 338 352 346 356 356 355 359 360 364 354 350 348 346 344 343 344 345 345 346 345 345 345 344 342 340 339 338 339
354 366 365 351 352 350 349 348 347 343 338 344 345 355 359 358 360 364 362 354 353 351 346 343 342 343 343 343 343 342 341 339 336 335 335 334 334 334
363 361 364 369 355 349 349 348 347 347 341 344 347 356 370 367 365 368 364 367 359 354 346 343 342 342 341 340 339 336 333 332 331 331 331 331 331 331
358 360 359 355 368 367 354 365 356 360 349 356 356 350 361 368 370 373 364 359 360 350 343 341 341 340 338 334 331 327 326 325 325 325 325 325 329 330
359 361 360 362 365 359 363 354 351 355 356 351 349 351 353 355 359 369 370 367 359 350 341 342 342 338 333 327 325 322 321 321 321 321 321 321 324 326
363 363 363 361 366 366 362 368 363 360 358 350 348 349 351 361 356 353 352 353 352 351 351 348 343 340 331 326 325 324 321 320 318 319 318 318 319 321
366 366 366 360 351 355 356 365 367 360 352 348 346 346 347 350 354 351 349 351 357 353 349 351 350 355 343 328 332 326 323 322 320 318 316 315 316 318
364 367 370 355 353 342 341 341 351 363 365 350 345 344 362 355 349 348 349 346 344 355 354 351 354 351 359 359 329 325 323 322 320 318 316 315 315 316
367 366 365 356 357 366 345 340 341 337 339 361 362 361 361 366 366 365 359 358 352 355 357 351 354 351 358 335 326 324 322 321 319 318 316 314 313 313
365 369 368 368 367 365 366 363 363 364 362 355 358 362 365 369 369 366 367 369 363 363 365 350 351 351 357 347 326 324 322 320 319 318 316 314 311 309
362 365 365 369 352 339 363 364 365 366 346 339 343 342 341 337 343 357 351 347 344 345 351 345 347 351 354 352 334 324 322 321 318 317 316 314 309 311
360 362 340 351 338 330 363 364 361 363 365 360 359 349 342 352 334 353 355 349 346 345 352 347 347 349 346 355 349 333 332 319 317 316 313 310 309 339
354 354 356 330 327 325 325 365 360 362 358 360 358 356 355 358 361 363 365 358 351 350 352 354 348 347 348 349 357 354 359 332 335 324 311 309 308 316
356 355 355 325 319 321 326 334 329 334 358 354 350 346 346 348 349 355 368 370 366 365 368 372 358 353 349 348 350 362 363 359 355 347 343 315 309 310
357 349 322 320 315 318 317 320 322 349 352 352 351 350 350 350 355 360 366 378 375 377 371 374 366 365 360 354 353 354 356 358 357 350 346 342 339 337
338 348 343 335 323 332 341 332 344 352 353 353 353 354 355 352 349 352 349 350 351 355 369 372 374 372 359 359 358 356 358 356 357 351 347 343 339 338
324 343 354 355 352 355 357 359 358 356 353 354 355 354 353 352 351 353 350 349 349 351 352 358 374 375 369 369 356 358 359 359 356 355 349 344 342 339
329 345 346 356 355 355 356 358 358 353 358 357 356 355 354 354 353 354 352 349 349 351 352 355 358 361 361 364 354 360 360 360 363 356 351 345 343 342
332 343 348 351 354 358 356 354 354 360 362 357 356 357 356 355 351 352 352 351 350 352 353 355 354 354 350 349 357 343 359 360 362 348 352 347 344 348
332 342 348 351 354 356 357 360 358 361 359 360 360 360 360 357 354 354 353 353 351 352 352 357 357 356 354 351 353 358 325 363 363 357 350 354 335 318
339 341 348 352 349 349 357 357 362 363 361 362 362 361 362 361 359 356 355 333 340 355 355 357 361 340 365 369 354 356 356 320 339 360 355 349 345 343
334 342 354 353 351 355 360 356 358 358 361 362 359 362 362 362 359 360 359 356 360 360 357 360 365 363 364 358 355 357 359 360 325 322 325 328 347 341
321 326 331 350 351 352 355 359 356 357 360 361 363 363 363 360 359 360 358 357 355 354 354 355 360 361 358 359 351 358 357 358 353 342 341 321 322 321

GFSNE_sfc_thetae_090.txt.gz
Theta_e
364 364 363 357 351 352 351 350 347 338 339 350 352 359 359 360 361 359 363 357 350 348 347 346 345 344 346 346 346 346 345 343 339 338 337 336 336 338
359 363 362 357 358 354 349 354 353 348 341 348 348 359 362 358 361 359 364 354 353 351 349 345 345 344 344 344 344 342 338 335 334 334 333 332 332 333
364 361 362 363 359 357 357 354 354 352 346 348 356 356 358 359 358 362 364 364 361 353 348 346 343 343 343 342 339 335 331 330 329 329 329 328 329 331
361 361 359 358 363 363 358 356 356 357 351 347 351 350 352 354 363 365 362 360 359 357 348 345 343 342 339 336 332 328 326 325 324 324 324 324 327 330
362 362 361 361 360 358 362 358 355 355 355 352 348 357 353 354 355 361 364 364 366 356 348 346 345 338 335 329 326 323 322 322 322 322 321 321 323 326
363 363 363 362 362 362 360 359 358 358 356 355 351 349 351 354 359 356 353 352 352 356 353 346 342 339 333 326 325 324 321 320 319 318 318 317 319 321
363 364 363 361 355 358 360 360 359 357 354 351 349 351 350 352 349 351 348 353 352 354 352 352 349 346 333 327 330 328 323 322 320 317 316 314 316 317
359 362 364 357 352 342 341 341 350 358 356 356 352 347 349 355 355 353 351 345 342 359 352 350 351 350 351 341 335 328 324 322 320 318 316 315 316 316
363 360 358 356 351 360 343 339 339 337 341 350 350 353 354 356 359 357 355 355 352 352 354 348 355 352 357 338 329 325 323 322 320 318 316 315 314 312
362 363 362 360 359 361 362 361 357 357 354 348 348 349 352 356 357 356 355 357 359 360 360 350 356 352 348 332 326 325 323 321 320 318 316 313 311 311
355 359 359 361 349 339 355 358 360 361 348 340 341 341 339 338 344 355 351 348 343 344 350 345 343 348 352 337 328 325 322 320 318 318 316 312 308 312
355 355 339 346 335 331 351 356 352 354 356 358 356 344 339 345 334 348 354 348 345 343 348 347 346 346 343 353 339 326 325 319 317 316 312 309 309 330
354 354 356 331 325 324 325 352 353 356 353 357 357 357 355 355 357 355 354 351 346 346 350 352 352 354 350 344 351 337 335 323 323 319 312 307 310 319
354 356 355 324 316 316 322 328 327 333 353 353 353 352 350 348 348 350 356 358 357 354 356 364 356 353 351 348 347 354 350 337 336 330 327 311 309 311
339 340 322 321 318 323 317 318 319 338 343 346 347 349 351 353 352 350 350 360 363 363 362 367 363 359 357 352 350 350 352 353 349 341 333 328 327 326
332 339 331 325 324 331 334 342 333 343 345 346 347 349 352 351 350 351 346 344 344 358 366 366 365 363 357 357 355 352 353 352 355 349 344 341 337 333
316 326 336 342 348 353 353 353 354 347 347 349 350 350 351 351 350 351 348 345 345 344 343 357 365 364 364 360 356 356 354 353 356 351 344 338 336 335
316 325 334 340 342 346 353 354 354 350 354 353 352 351 349 349 350 351 351 347 345 345 343 348 352 360 358 363 354 356 357 356 355 353 345 340 339 337
317 325 333 338 341 346 349 350 350 355 356 355 354 354 352 351 348 349 348 348 348 348 347 349 350 347 346 343 354 339 355 355 356 346 346 344 342 341
325 328 332 338 340 341 345 350 351 353 353 355 355 351 351 353 352 350 349 348 348 346 344 347 349 346 344 342 343 353 325 356 354 352 347 347 329 323
331 332 335 338 342 345 348 352 351 349 351 353 351 352 353 353 352 352 352 332 337 350 348 350 351 337 358 362 352 351 353 324 339 354 352 346 336 335
327 326 327 327 328 331 345 350 350 351 354 352 351 350 350 352 350 350 351 349 348 349 350 353 356 355 353 349 346 348 352 355 325 328 325 330 344 336
317 316 315 316 317 321 325 336 349 351 353 354 347 347 349 349 351 351 350 350 350 348 349 349 352 353 352 350 341 348 350 351 348 338 338 324 325 328

GFSNE_sfc_thetae_093.txt.gz
Theta_e
347 349 348 349 344 346 344 336 334 327 329 335 344 345 348 353 354 351 349 354 351 348 352 351 346 346 346 346 346 345 343 339 337 336 335 335 334 335
350 346 348 348 347 347 347 344 342 335 329 337 337 349 352 350 353 349 349 353 350 349 352 350 344 345 344 344 344 341 337 335 333 332 331 330 331 333
349 349 346 348 347 348 350 347 344 343 335 338 346 346 342 340 343 347 354 354 353 349 352 348 344 345 342 343 341 336 333 330 328 328 327 328 330 331
348 349 347 351 348 351 347 346 346 343 339 334 338 340 343 345 346 350 357 358 354 356 354 350 344 344 338 338 334 331 328 325 324 325 325 326 327 329
351 350 350 350 347 347 344 347 346 349 347 344 343 346 347 345 344 346 349 354 354 353 347 342 340 339 335 332 328 325 322 322 322 321 321 322 324 327
354 354 353 350 349 349 348 347 347 346 346 345 343 343 343 347 347 346 340 343 345 348 347 341 340 339 334 329 326 325 321 320 319 318 317 317 319 322
352 354 354 355 352 351 353 349 348 347 347 344 343 343 340 341 343 345 343 344 342 340 345 345 343 340 335 330 331 330 324 322 320 317 315 316 318 318
350 352 354 352 351 344 343 345 350 347 344 344 344 343 341 341 345 344 345 342 339 347 346 347 348 348 347 336 333 329 324 323 321 318 315 316 314 314
353 352 352 356 349 353 343 338 337 336 340 343 340 339 340 343 345 344 342 344 344 349 347 348 350 349 352 343 331 327 324 322 321 319 316 316 314 314
351 355 353 351 349 350 353 353 348 347 344 341 343 345 344 344 345 346 345 346 349 351 352 344 346 342 344 332 329 326 323 321 320 318 317 312 311 313
347 349 353 354 345 337 346 347 350 353 346 337 338 337 336 336 340 348 344 341 342 344 341 338 342 335 341 335 325 325 321 319 318 317 317 312 309 315
348 347 335 342 334 331 345 348 348 349 349 353 345 339 336 342 334 342 347 341 343 342 343 339 337 337 337 340 326 322 321 318 316 315 315 310 308 319
349 349 350 327 319 317 320 343 343 342 345 349 350 351 351 349 349 346 346 347 345 344 346 343 338 342 342 340 338 324 324 320 319 317 312 309 308 319
338 345 346 317 313 316 321 322 321 326 338 341 345 346 348 349 350 349 352 350 351 348 349 345 343 344 342 340 341 339 329 327 323 322 320 312 309 313
334 330 319 315 318 326 318 320 319 326 331 334 338 341 344 348 350 346 344 342 349 352 353 351 351 350 348 346 343 343 344 335 330 327 324 319 321 322
329 329 327 323 323 327 328 336 340 343 341 338 338 340 343 345 346 348 347 347 345 344 349 356 355 353 350 351 350 348 347 345 337 336 330 325 325 325
313 324 327 333 336 338 339 345 350 348 338 341 342 342 342 344 345 347 347 346 343 341 340 343 358 358 358 353 348 351 349 345 349 345 334 331 331 328
315 320 324 328 331 335 338 339 342 345 348 343 344 345 344 344 345 347 347 345 343 342 340 340 342 349 349 352 350 350 346 349 350 346 343 336 332 332
313 320 321 324 328 333 336 338 339 345 347 348 349 347 345 344 340 343 345 344 343 343 342 341 338 340 339 337 343 335 351 351 350 343 344 339 338 336
316 321 324 325 329 332 336 337 339 340 342 346 348 348 348 348 348 346 344 344 344 345 343 343 340 339 339 337 336 344 323 353 348 345 340 339 331 327
321 324 326 326 326 326 327 327 329 331 335 345 345 346 346 346 341 337 336 324 331 342 342 343 342 332 342 346 342 343 349 318 339 346 343 340 329 331
317 317 318 316 314 313 314 316 319 323 329 337 345 346 346 344 344 343 343 343 344 344 344 347 346 346 342 339 341 339 342 347 324 325 324 333 338 332
310 308 310 310 309 310 311 311 312 314 320 325 336 343 341 340 341 342 344 345 344 338 342 343 342 342 343 342 338 343 341 343 341 337 336 324 324 330

GFSNE_sfc_thetae_096.txt.gz
Theta_e
341 346 345 345 342 343 339 337 329 325 325 332 334 342 346 349 349 349 347 345 346 345 343 343 345 345 345 345 346 346 342 339 336 335 334 333 334 336
347 344 343 346 346 344 345 343 339 332 327 333 337 343 348 346 347 347 345 347 346 344 343 343 343 342 343 343 343 343 337 334 332 331 330 330 331 333
345 346 345 344 344 345 347 343 341 339 332 334 341 341 340 340 345 346 349 349 353 345 344 341 339 341 341 340 340 338 333 330 328 328 328 328 330 331
345 344 345 347 342 345 344 341 343 341 339 336 337 340 342 345 346 344 349 354 351 348 341 337 336 337 337 335 335 334 328 326 325 325 326 326 328 329
345 345 346 346 344 343 343 341 342 345 343 341 340 343 343 344 343 345 346 345 348 346 340 339 337 337 334 331 330 326 322 321 321 321 321 320 323 328
349 350 348 348 346 345 344 344 342 342 341 340 339 340 340 344 343 342 343 342 344 347 343 341 338 338 335 330 329 326 320 319 318 317 317 317 319 323
348 349 351 351 347 345 348 346 345 343 342 341 340 340 340 339 339 342 340 341 340 339 344 343 344 345 344 335 334 332 324 321 319 317 315 316 316 317
347 348 349 349 347 341 340 342 346 345 342 340 339 338 338 338 340 341 338 337 334 344 343 346 348 348 348 345 336 329 325 321 320 318 316 315 314 315
350 349 349 353 347 351 344 338 336 336 340 342 339 338 337 338 338 336 337 338 338 343 344 346 346 345 347 344 332 327 324 321 320 319 317 315 314 314
346 349 350 351 349 348 347 347 348 346 341 340 343 345 343 345 338 340 338 340 343 345 348 340 342 340 340 339 328 327 323 320 319 318 316 313 311 312
344 345 348 350 341 334 344 346 346 346 343 332 333 333 333 332 336 343 340 338 340 340 340 338 339 336 336 339 328 325 321 318 317 317 316 312 309 312
346 347 334 340 331 328 343 347 346 347 348 348 350 339 333 339 330 340 345 340 340 339 340 338 335 335 333 339 329 323 321 316 314 314 314 311 307 319
344 347 344 319 315 315 316 329 336 337 336 338 343 348 349 346 346 343 344 345 343 341 345 340 336 335 337 338 338 326 322 320 319 316 311 308 306 315
330 335 335 318 314 317 319 323 318 320 329 334 336 339 342 344 348 350 349 347 349 348 350 343 339 338 336 335 336 336 325 324 321 322 320 312 307 309
330 327 317 315 314 318 321 320 320 330 332 330 334 337 340 344 346 346 346 348 350 349 350 349 345 345 340 340 339 339 339 334 325 324 322 319 319 320
324 324 322 318 317 320 323 331 334 336 338 339 341 344 345 342 341 343 342 343 343 344 346 348 348 347 344 344 345 344 342 342 331 329 328 323 321 323
307 316 321 325 326 330 333 336 338 341 342 343 342 343 343 342 340 342 342 342 340 341 342 345 343 348 349 347 343 346 347 342 342 333 327 325 324 326
310 314 317 321 321 323 326 329 333 335 339 343 342 341 341 343 342 343 343 342 341 342 342 344 337 339 345 349 347 349 345 348 347 342 334 331 331 331
309 314 316 321 322 324 326 330 332 335 337 338 340 342 344 343 341 343 344 343 343 343 342 343 336 334 333 333 341 333 349 348 346 342 341 340 340 339
310 314 317 321 325 322 318 318 319 320 322 325 328 332 339 344 344 344 344 343 343 343 342 341 337 337 335 337 337 340 321 351 343 344 340 338 332 324
313 317 321 320 315 312 312 312 312 313 315 317 320 324 331 339 341 343 343 326 330 339 337 337 342 333 340 340 337 339 342 317 334 347 338 337 330 330
312 311 310 309 310 309 309 308 308 309 311 313 313 317 321 330 337 341 341 339 336 335 338 341 344 344 342 340 337 338 340 341 322 320 323 331 335 330
308 309 309 309 308 306 306 305 305 306 308 309 311 313 318 319 321 329 339 342 342 340 336 334 337 337 335 333 331 338 341 340 339 334 338 322 322 324

GFSNE_sfc_thetae_099.txt.gz
Theta_e
342 340 343 345 342 343 339 336 329 325 325 331 334 341 346 345 346 346 345 345 343 342 341 340 341 342 344 345 346 346 344 338 336 335 334 333 333 336
344 343 341 344 344 343 343 340 337 331 327 331 336 338 343 344 347 347 345 345 345 343 341 338 338 340 342 343 342 343 340 334 332 332 331 331 331 333
343 343 343 343 342 343 344 341 340 336 332 336 336 340 339 342 345 345 348 348 347 343 341 337 336 338 339 339 339 340 336 331 328 329 330 330 330 331
342 342 342 346 341 341 342 339 341 339 337 334 337 339 341 342 344 344 346 349 345 344 339 336 336 335 335 333 332 334 330 327 326 325 326 326 327 329
346 342 342 343 342 341 340 339 339 342 340 338 337 340 341 341 342 344 345 344 346 345 339 338 338 335 334 331 328 328 324 322 322 321 321 321 323 327
347 346 345 346 344 344 343 341 340 339 338 338 337 338 339 342 341 339 340 340 342 345 342 341 339 339 336 332 330 328 320 318 318 317 317 318 320 322
346 347 348 349 346 343 347 345 343 341 340 338 338 337 337 336 335 338 338 338 338 337 340 344 344 348 348 340 339 335 324 320 319 317 315 316 316 317
346 346 347 346 345 339 338 338 344 343 341 339 339 337 337 337 337 338 335 333 332 340 341 343 345 347 346 344 338 332 325 322 320 319 316 316 315 315
347 348 348 351 345 348 342 337 336 334 339 345 341 341 338 338 337 334 333 334 334 339 341 342 342 339 341 341 334 329 324 321 320 319 317 315 314 313
341 345 346 347 348 347 347 346 346 346 342 339 342 346 345 344 339 340 338 336 338 341 344 338 339 339 339 339 329 328 323 320 319 318 316 313 311 311
342 342 344 344 338 329 341 344 345 346 341 330 332 332 331 330 335 339 339 336 340 341 342 338 337 335 336 337 332 326 321 318 317 316 316 312 309 311
342 343 330 326 318 318 332 339 340 343 343 342 343 339 332 336 330 338 343 339 340 336 340 338 335 334 333 336 335 326 322 317 314 313 314 311 308 322
332 333 337 322 315 313 314 330 332 333 335 336 337 339 341 343 345 339 341 343 342 341 344 341 335 333 333 335 337 332 325 322 320 316 310 307 307 315
323 328 332 319 313 313 316 321 318 319 330 334 336 338 339 341 343 345 346 344 347 347 350 342 339 337 333 332 333 336 330 324 322 322 320 310 306 308
321 320 314 312 311 316 317 316 317 327 331 333 334 338 342 343 344 343 344 347 347 347 348 348 343 345 341 338 338 338 335 334 324 324 322 319 317 317
312 312 315 315 315 318 323 328 331 331 332 334 336 341 344 344 342 342 340 341 339 341 344 347 347 345 342 342 341 339 339 337 330 326 325 323 321 322
301 310 313 315 318 320 322 325 328 330 331 334 336 338 340 342 342 342 340 339 338 338 340 342 342 344 344 343 339 340 341 339 344 333 325 325 324 325
306 307 310 312 315 319 321 324 326 328 325 326 329 330 331 334 338 342 341 340 339 339 340 342 339 335 337 342 341 341 342 343 345 338 331 332 333 329
303 307 309 312 315 321 324 320 318 318 316 316 318 319 321 325 329 336 339 341 339 341 342 344 339 335 334 332 337 332 345 345 344 341 339 336 339 342
304 307 312 315 318 317 314 312 310 309 309 310 311 314 316 318 321 325 331 337 339 342 343 344 340 340 336 336 337 339 319 346 342 343 342 344 337 321
301 305 309 310 311 311 309 309 309 308 308 308 310 311 311 313 314 318 324 319 325 338 339 340 343 333 343 338 336 338 339 315 332 345 342 339 336 331
300 302 304 307 309 310 308 307 306 306 305 306 306 307 308 311 312 314 315 316 321 329 336 339 341 339 339 338 336 337 338 339 326 317 321 333 335 332
296 297 300 302 304 307 306 305 304 304 304 303 303 305 305 305 307 310 311 313 317 322 332 336 339 340 340 339 332 334 332 333 335 336 336 318 318 318

GFSNE_sfc_thetae_102.txt.gz
Theta_e
349 348 350 350 349 349 346 343 341 336 336 342 344 352 353 354 355 356 356 347 344 342 339 338 339 341 344 345 346 346 345 339 337 336 335 334 334 336
349 349 349 349 350 349 350 347 344 340 337 340 345 348 352 351 354 356 355 348 345 340 339 337 338 340 341 341 341 341 341 336 333 333 333 333 332 334
349 350 350 351 348 349 353 348 348 343 341 346 344 350 351 353 355 357 356 359 354 342 339 336 336 338 338 338 336 337 337 333 330 330 330 330 330 332
349 348 348 348 349 349 349 349 348 348 345 343 346 347 350 353 353 354 355 353 354 345 338 336 335 336 335 334 332 331 332 328 327 326 326 326 328 330
349 348 348 348 349 349 348 346 346 347 347 346 345 348 349 350 352 354 353 355 351 345 340 338 337 337 334 332 329 327 325 323 323 322 320 322 325 328
350 350 349 349 350 352 349 350 350 347 347 346 345 346 347 352 349 346 348 352 349 351 346 341 340 340 338 334 332 331 322 319 319 318 317 320 320 323
351 351 353 350 343 346 353 355 352 350 349 347 347 346 347 347 348 348 346 347 349 349 348 352 354 356 354 345 344 339 326 320 318 317 315 316 316 318
352 354 354 348 348 338 336 338 347 352 351 348 348 347 349 347 348 347 347 345 343 352 350 351 356 354 353 351 338 331 328 322 320 318 315 316 315 316
352 352 353 353 349 354 344 336 337 334 339 353 350 351 349 352 350 348 346 344 345 350 350 349 354 351 354 349 333 329 326 322 320 319 316 316 314 313
345 346 347 349 349 346 351 352 352 353 351 346 348 352 354 355 352 352 350 347 348 349 351 345 353 350 353 352 331 328 325 321 319 318 316 313 312 310
346 345 343 344 324 324 340 346 348 350 342 331 331 331 330 329 334 344 345 345 344 348 352 349 350 347 349 351 350 327 323 319 317 317 316 312 310 311
335 337 326 326 319 320 330 337 339 343 345 345 347 344 339 343 330 342 347 344 345 344 352 347 347 347 344 350 350 347 343 318 314 313 314 311 308 331
327 329 333 320 314 313 314 325 332 331 334 338 341 343 345 347 348 349 348 347 345 346 351 350 348 347 344 345 349 351 347 341 335 326 310 308 307 321
320 326 326 312 308 309 317 319 315 317 330 334 336 337 339 343 347 349 353 350 352 351 354 353 348 347 347 345 344 352 349 346 341 340 334 316 307 309
314 313 310 308 310 317 317 316 317 333 335 334 335 337 341 345 349 350 352 354 353 354 352 354 351 351 349 347 346 347 346 350 345 341 338 332 327 320
308 310 313 313 313 317 322 327 331 334 334 334 334 339 342 341 344 348 346 349 345 346 354 356 356 353 347 348 348 347 348 346 350 344 341 339 336 332
303 314 316 318 319 321 324 325 328 329 323 323 324 323 323 325 327 334 336 340 340 343 345 352 354 353 351 351 346 348 348 348 350 350 340 341 341 338
307 310 311 313 315 317 319 323 325 320 316 318 318 316 316 317 318 321 327 331 333 337 339 343 348 349 349 350 344 347 349 349 351 353 348 344 346 348
304 306 309 312 313 315 318 315 315 314 313 313 313 314 314 314 315 316 317 321 323 329 334 341 342 341 335 333 347 330 348 349 351 351 348 343 345 350
300 301 303 307 310 311 312 311 311 311 311 310 310 311 312 312 312 312 314 315 318 316 319 329 338 341 338 336 341 347 317 349 353 351 352 351 348 329
297 297 299 299 302 303 306 309 309 309 308 308 307 308 308 307 308 311 313 309 310 313 314 317 324 324 339 344 338 339 346 316 334 350 352 351 349 348
294 294 295 299 299 302 301 303 306 306 305 305 305 305 305 304 304 307 308 308 310 313 313 315 321 325 333 336 334 336 339 346 332 318 319 329 345 340
290 292 293 295 296 298 300 302 304 302 303 302 301 301 302 302 303 303 302 303 305 307 310 312 315 321 321 329 332 335 336 338 342 343 344 323 317 318

GFSNE_sfc_thetae_105.txt.gz
Theta_e
360 360 356 357 359 359 356 353 347 339 341 350 347 358 357 357 359 361 363 348 345 342 340 339 340 342 344 344 344 345 348 344 340 337 335 335 335 337
358 359 360 358 358 358 357 356 352 346 339 350 349 355 358 356 355 361 361 350 348 343 339 338 338 340 342 342 341 341 345 340 336 334 333 332 333 334
359 359 359 362 355 356 358 358 354 352 344 345 353 356 360 361 361 364 360 359 353 343 340 338 336 337 339 339 338 337 342 337 333 331 331 330 331 333
358 358 358 356 358 359 355 358 354 357 351 350 356 355 360 364 364 365 359 359 362 347 339 337 336 336 335 335 333 332 335 332 330 326 326 327 329 332
359 357 357 358 359 358 359 356 354 355 356 353 353 357 358 360 361 363 363 365 359 349 342 341 340 338 336 333 331 330 329 326 325 323 322 324 326 330
360 360 359 358 358 360 357 360 361 360 359 356 353 353 355 360 359 354 353 357 356 357 350 345 341 342 339 335 334 334 326 320 320 320 319 321 322 325
360 360 362 356 346 350 359 363 360 359 353 349 350 351 351 350 352 354 352 353 355 355 356 355 355 357 355 346 347 341 331 322 319 318 316 317 317 321
359 362 363 353 350 337 337 337 347 359 360 358 355 351 356 356 355 353 353 350 345 355 356 353 357 356 357 356 336 332 330 324 320 319 316 317 317 319
358 358 358 357 354 359 346 338 338 333 339 358 356 358 358 359 360 357 356 354 352 355 357 351 356 355 358 354 336 331 329 324 320 319 317 317 317 316
351 351 351 345 331 336 352 356 358 361 362 358 359 359 361 362 362 360 358 357 357 357 364 350 355 354 358 359 341 333 329 323 320 318 316 314 313 313
341 337 336 331 324 322 341 343 348 355 344 334 330 328 328 328 335 350 351 351 349 351 358 354 354 354 356 356 357 332 326 321 318 317 317 313 311 313
333 335 325 323 315 315 330 332 333 339 343 345 350 350 343 352 332 352 353 350 351 347 357 353 352 352 348 355 357 359 359 320 316 314 315 312 309 339
325 326 327 315 310 309 311 333 331 327 333 338 341 343 345 347 349 354 357 353 349 349 354 356 352 351 350 350 354 357 358 356 355 337 310 309 308 320
319 322 323 308 307 308 317 313 313 319 336 336 337 337 339 342 345 349 353 354 355 356 358 362 352 352 350 348 348 354 356 358 359 357 356 326 308 309
312 311 310 308 311 317 315 314 319 335 336 335 332 332 334 335 340 343 347 352 357 357 354 359 355 354 351 348 348 351 350 355 358 358 356 353 347 337
311 313 314 314 313 317 322 325 329 332 330 329 327 328 329 329 328 331 330 333 335 341 351 358 360 358 350 350 351 351 353 350 356 358 357 355 355 351
305 314 315 316 317 319 321 324 328 328 326 325 324 324 324 324 324 324 324 324 325 329 333 339 351 351 355 356 349 350 350 351 356 357 358 355 355 355
307 308 308 312 313 314 315 317 321 321 321 321 321 321 320 321 321 321 322 321 320 321 324 328 327 330 338 349 346 349 351 352 354 357 358 352 351 355
303 304 305 307 309 311 312 314 311 313 316 317 316 317 317 317 316 317 319 319 319 320 321 321 321 325 324 326 340 328 347 352 354 352 357 356 352 353
301 300 299 301 301 304 306 306 307 308 309 309 309 311 311 311 312 311 313 314 315 316 316 319 320 320 320 317 319 328 323 346 349 349 348 353 353 334
298 299 299 299 300 300 301 302 302 303 305 307 308 306 305 305 305 305 305 304 306 311 312 314 318 316 321 323 321 325 335 318 334 348 352 351 347 348
296 296 297 298 299 300 300 301 300 299 300 300 302 304 304 303 302 303 303 302 303 303 304 310 314 316 317 317 316 320 323 331 331 319 319 327 346 341
296 296 296 297 297 297 297 297 297 298 298 300 301 302 303 300 301 300 299 299 299 300 302 302 308 312 313 314 314 316 321 326 329 335 340 325 319 319

GFSNE_sfc_thetae_108.txt.gz
Theta_e
358 360 357 356 355 355 355 352 346 338 339 352 350 356 356 353 356 358 358 350 350 347 343 341 341 343 345 346 345 344 345 349 343 338 337 336 336 339
355 360 359 354 355 355 353 352 351 346 341 346 348 355 359 359 357 359 359 353 356 348 343 340 340 341 342 343 343 342 343 345 340 335 334 334 334 336
359 359 359 361 353 351 352 351 349 348 344 345 349 355 362 362 363 365 361 358 354 344 344 341 340 339 340 340 339 339 340 341 337 333 332 332 333 335
358 358 357 355 361 361 354 357 356 357 349 352 357 351 358 364 363 366 360 356 357 349 343 341 339 338 338 336 335 336 335 337 333 330 328 329 330 333
357 357 357 358 358 356 359 354 353 352 354 351 349 351 353 357 359 364 362 363 354 348 343 342 340 340 338 335 334 334 331 330 329 327 324 325 327 331
358 358 358 357 359 359 357 360 358 355 354 352 349 348 349 358 356 349 348 351 351 352 350 346 343 343 341 338 338 339 331 324 323 322 321 323 324 327
360 359 359 356 348 349 356 359 361 357 351 349 347 347 347 352 352 350 348 349 354 353 351 354 353 354 354 348 349 342 334 325 321 320 318 319 320 322
358 360 360 354 352 341 339 338 347 359 356 352 349 349 356 356 353 351 352 350 347 358 358 354 356 353 355 355 339 338 333 327 322 320 318 318 320 321
360 360 360 353 350 356 347 338 339 335 339 360 357 357 357 366 366 359 360 356 355 357 360 352 356 353 356 354 338 341 333 326 322 320 319 317 319 319
349 347 344 338 334 336 352 357 359 360 362 359 363 361 364 362 362 363 361 361 359 359 364 349 353 352 356 357 346 339 332 326 322 320 318 315 314 317
343 336 338 336 317 319 342 347 350 353 342 334 334 332 332 331 337 354 353 356 349 352 359 353 354 353 356 355 357 336 329 325 321 319 318 315 311 312
340 338 318 321 313 312 334 337 339 343 340 342 347 347 342 350 333 357 357 351 355 349 357 353 353 354 350 356 357 359 360 324 318 316 316 314 310 334
330 329 329 313 310 309 312 334 332 330 336 340 343 345 348 349 349 353 355 351 347 346 356 360 353 354 359 352 355 358 358 356 356 339 312 311 309 318
322 323 324 309 308 309 316 314 313 319 336 337 337 338 339 339 341 343 348 350 351 353 357 363 356 355 351 349 348 355 357 359 360 359 360 326 309 309
316 312 310 308 310 316 315 316 316 331 332 330 330 331 332 333 337 338 340 346 348 347 343 355 351 357 355 349 349 351 349 355 359 358 359 364 357 348
311 317 315 314 312 317 321 325 329 331 328 327 327 327 329 328 328 330 328 328 327 329 341 347 352 349 339 344 352 348 354 350 356 357 362 371 365 360
304 315 314 316 317 318 320 322 323 324 323 324 322 322 323 323 323 326 325 325 323 323 325 329 343 341 334 342 337 346 350 353 358 364 365 361 365 359
310 310 310 310 311 312 313 315 318 318 318 318 320 319 318 319 319 319 320 319 320 321 322 324 325 323 324 331 333 340 340 347 345 352 360 356 356 362
307 306 305 305 305 307 308 309 310 311 314 313 313 313 313 314 313 314 315 315 314 316 318 319 318 319 318 317 324 321 328 325 329 333 345 358 353 353
305 305 305 305 305 304 306 305 306 306 308 309 311 312 313 311 310 309 309 309 308 308 309 312 315 317 315 315 316 322 314 327 326 333 338 345 349 334
303 303 303 303 304 304 305 306 306 305 303 305 303 304 305 305 306 306 306 302 303 305 305 305 309 310 313 316 314 316 322 313 319 327 329 333 340 341
303 302 302 303 303 303 303 302 303 302 303 303 303 302 302 302 301 302 302 301 301 300 301 304 306 307 309 309 309 314 316 321 321 318 317 319 328 331
302 302 301 301 301 301 301 300 300 300 300 300 300 300 300 299 300 302 301 300 300 299 300 299 301 302 304 305 306 308 313 316 318 321 324 319 316 317

GFSNE_sfc_thetae_111.txt.gz
Theta_e
360 361 358 352 351 352 351 349 345 337 338 355 348 363 356 356 357 358 361 354 349 350 348 343 344 345 345 346 347 346 345 348 343 339 337 337 337 339
354 364 361 354 355 352 350 350 349 345 340 345 346 354 361 358 358 364 360 352 350 355 349 343 344 344 343 344 345 344 344 346 341 336 335 335 334 338
360 359 359 365 354 350 350 349 347 346 342 346 347 353 367 366 362 365 359 364 354 347 344 345 344 342 341 342 342 342 342 343 340 335 332 333 333 335
357 358 356 352 363 368 351 364 356 358 346 355 352 351 362 369 369 372 357 354 356 351 346 345 343 341 338 338 338 339 338 338 337 333 329 330 331 334
359 360 357 357 358 358 360 356 353 353 356 349 348 349 352 354 360 366 368 368 352 348 343 343 344 340 337 335 338 338 334 333 332 330 327 326 328 331
358 357 359 358 359 360 358 364 362 357 357 350 348 347 349 363 360 350 349 351 351 351 350 346 343 343 340 338 340 342 334 328 325 325 324 325 325 328
359 359 359 357 348 349 353 363 366 357 352 349 347 346 345 350 349 350 350 352 357 358 357 358 357 355 354 341 349 347 337 329 324 323 321 321 323 324
358 359 358 359 355 342 341 340 347 357 359 357 350 349 358 356 353 353 353 351 348 359 359 357 360 352 353 354 343 340 339 329 325 322 320 319 321 325
360 360 359 353 348 353 347 340 339 336 339 356 355 356 357 363 364 359 358 356 353 357 360 355 358 356 357 352 340 338 337 330 325 322 320 319 318 321
352 352 350 344 329 330 341 353 356 357 362 358 361 360 360 358 357 359 360 361 359 358 361 347 358 356 360 362 341 337 333 328 325 322 319 317 314 314
337 333 337 332 317 318 339 343 345 350 339 334 335 332 331 331 337 352 353 355 352 353 357 353 353 354 358 357 359 336 331 326 322 321 320 316 312 312
344 328 317 321 314 314 335 336 333 334 336 341 345 347 340 349 333 351 356 349 345 343 354 348 349 350 346 354 357 360 361 332 320 318 318 316 311 334
335 333 328 313 310 310 312 331 326 325 333 341 342 343 345 347 348 347 352 343 339 340 345 345 342 344 346 345 351 357 362 359 362 345 314 311 309 323
320 324 322 308 308 309 316 314 314 318 333 333 333 333 334 334 334 336 347 348 341 344 347 352 342 345 343 343 343 350 354 359 359 360 360 325 309 310
310 310 309 308 308 314 315 315 316 330 331 328 327 328 328 330 339 336 339 344 342 343 335 350 339 341 340 336 336 336 337 346 356 364 359 356 351 342
314 318 315 314 313 315 321 324 327 326 325 325 325 325 326 326 324 326 324 324 324 326 337 344 346 342 330 330 330 329 337 338 348 359 361 361 364 366
304 317 315 316 316 316 317 319 321 319 319 318 318 319 320 320 319 321 320 319 318 319 321 326 333 334 331 333 327 330 331 338 337 345 340 341 352 360
310 311 310 310 310 310 310 310 313 313 311 312 312 313 314 314 314 314 316 315 315 315 315 317 317 317 319 325 326 327 328 327 329 327 329 331 335 348
310 309 308 308 307 308 308 308 307 309 314 309 308 308 310 312 312 311 311 311 310 310 310 312 312 313 310 310 319 317 317 319 318 320 327 328 333 341
307 307 307 307 307 307 307 307 307 307 306 306 307 308 308 307 306 306 306 307 306 306 306 307 308 308 305 304 306 311 310 316 318 322 325 325 326 322
306 305 305 305 306 306 306 306 306 305 304 305 304 304 304 305 304 302 303 300 301 303 301 302 305 308 309 310 306 308 314 311 313 317 318 316 317 319
306 306 305 305 305 305 304 304 303 303 303 302 302 302 302 301 300 300 300 300 300 301 302 303 305 304 302 301 301 305 307 310 311 311 311 312 315 313
305 305 305 304 304 304 303 303 302 302 301 301 300 300 299 297 298 298 298 298 299 298 299 300 302 302 301 301 300 301 303 304 306 308 311 311 311 312

GFSNE_sfc_thetae_114.txt.gz
Theta_e
363 365 362 358 356 358 349 354 349 338 338 340 343 356 358 358 360 362 360 357 348 350 351 348 346 346 346 347 347 346 345 347 343 339 338 337 338 340
359 359 365 361 358 354 353 353 354 349 342 349 349 354 361 356 359 359 363 352 350 348 353 352 346 346 345 345 345 344 344 345 342 338 336 335 336 338
363 362 360 363 359 356 354 352 349 350 344 346 349 351 354 356 361 363 366 359 357 347 351 350 346 345 344 342 342 343 342 342 340 335 334 333 334 336
360 362 360 355 360 362 359 358 357 355 354 348 355 353 355 357 365 364 362 356 356 349 349 346 347 342 340 338 339 341 338 338 337 334 331 331 332 334
360 358 353 357 358 360 361 360 356 357 354 353 350 353 352 354 352 359 354 360 353 350 345 344 343 340 338 335 338 341 335 333 332 331 329 328 329 331
363 360 361 358 356 362 357 358 357 355 352 352 345 345 351 353 355 351 349 355 354 357 355 351 347 346 344 340 341 343 334 330 327 326 325 325 326 327
360 357 359 352 348 348 354 358 360 357 355 349 348 348 350 350 349 354 351 353 355 358 356 356 356 358 356 339 346 344 339 331 326 324 322 322 324 324
355 358 351 344 348 342 342 342 345 354 352 351 349 347 349 352 353 353 352 350 346 358 355 353 357 355 357 354 345 343 335 331 327 324 322 320 321 325
354 354 351 338 332 339 340 342 342 337 338 350 350 350 350 351 355 350 348 351 350 353 354 350 357 354 357 357 340 336 335 330 327 325 322 320 319 320
347 351 339 330 323 324 336 347 348 352 355 348 351 349 347 349 350 349 351 352 352 352 354 346 353 348 352 354 341 338 335 329 326 323 321 318 315 314
330 330 331 326 317 317 339 337 338 338 330 330 331 329 328 328 331 342 348 345 343 344 350 339 345 344 348 350 353 341 332 328 323 322 321 317 313 311
327 321 317 317 314 314 328 332 327 327 327 331 337 345 341 341 334 348 344 335 335 334 341 332 337 339 339 352 347 351 352 338 327 321 320 316 311 323
326 326 320 312 310 309 312 329 325 320 325 330 337 342 338 334 335 335 339 340 331 328 332 335 336 337 337 337 343 345 337 335 337 345 323 313 310 317
312 311 314 308 306 308 313 314 313 317 332 328 326 325 325 326 329 333 340 341 339 337 338 344 333 330 329 326 325 329 330 329 334 342 354 322 310 310
315 312 310 308 308 315 316 316 318 323 323 324 323 322 326 329 329 326 326 326 324 327 328 335 327 321 323 322 321 322 321 326 335 335 346 347 350 349
314 319 316 316 313 316 318 318 317 317 316 314 315 318 318 317 317 317 315 316 317 319 325 324 319 315 313 313 315 316 320 321 328 328 321 323 322 323
301 317 320 318 315 316 315 314 313 312 310 311 311 312 313 314 314 315 315 313 311 311 311 313 314 314 314 315 313 316 314 315 317 315 313 312 314 321
311 311 311 310 309 310 310 310 310 310 311 309 308 308 307 307 307 309 310 308 308 308 307 308 308 307 308 310 317 306 307 305 307 310 313 313 316 322
312 312 312 309 310 309 309 308 307 310 309 306 307 307 307 305 304 305 305 304 303 303 303 305 304 304 300 298 304 310 304 305 307 309 312 310 310 315
309 308 308 309 308 308 306 305 305 305 305 305 304 304 304 302 301 301 301 301 300 301 302 303 303 303 299 297 298 302 306 305 304 303 304 304 306 311
309 307 308 307 306 306 306 306 306 304 304 303 302 302 301 300 299 299 299 298 298 298 297 298 301 306 304 303 299 299 302 305 305 302 301 301 302 304
307 307 307 307 307 307 306 306 305 304 302 301 300 300 299 298 297 297 297 296 296 296 296 298 300 300 298 296 295 297 298 302 305 306 307 307 301 297
307 306 308 308 307 305 304 303 301 301 301 300 298 298 297 295 296 296 296 296 296 295 295 295 296 297 296 296 296 296 297 298 300 299 301 306 307 307

GFSNE_sfc_thetae_117.txt.gz
Theta_e
348 348 348 349 349 346 342 342 339 331 332 336 337 348 348 346 351 351 349 354 349 346 346 347 346 347 346 346 346 345 345 345 343 339 337 338 339 342
349 347 349 351 347 348 345 343 340 340 329 340 338 342 351 348 351 350 351 353 350 348 349 347 347 347 345 345 344 343 343 343 341 338 336 336 337 339
349 348 348 345 345 346 349 348 343 343 335 338 343 346 344 347 350 354 358 355 350 347 346 343 344 343 343 342 342 342 341 341 339 337 335 333 335 337
348 347 347 351 347 349 346 345 346 346 342 338 341 343 344 348 349 348 352 356 350 352 343 341 343 340 338 338 339 340 337 337 337 333 333 332 332 335
346 347 349 349 348 345 345 343 347 348 344 342 342 343 342 348 347 348 349 351 356 352 347 347 345 343 341 339 339 339 333 331 332 331 328 328 330 332
349 350 349 347 349 347 345 346 348 346 345 343 342 342 343 347 346 347 347 351 351 354 353 349 345 346 344 339 336 336 333 329 326 325 325 324 326 328
341 350 343 345 343 341 345 344 345 343 344 342 340 340 341 345 345 347 345 347 348 349 351 352 353 353 354 343 346 341 337 333 327 324 321 321 323 324
340 343 339 333 335 337 337 339 339 341 340 340 340 340 340 341 346 345 342 342 340 349 348 347 351 350 352 350 344 338 335 335 329 325 322 320 321 325
340 342 331 327 322 326 333 339 339 338 337 340 339 340 340 340 341 338 339 340 341 346 344 342 348 341 345 348 339 337 335 332 328 325 323 321 319 319
332 328 322 317 317 322 332 330 332 327 326 333 332 332 334 334 334 338 341 342 343 345 333 332 339 335 339 342 341 338 333 329 327 324 322 319 316 314
320 320 316 313 316 320 327 320 318 319 323 325 327 329 329 330 332 335 332 330 328 329 330 323 327 331 335 340 341 335 327 323 320 321 325 319 315 313
314 312 316 312 313 313 317 318 313 315 316 323 329 333 334 330 328 328 329 326 322 318 325 323 325 328 327 333 334 331 327 323 318 318 321 317 314 323
312 310 311 311 309 309 311 315 312 313 320 322 320 320 320 321 323 323 322 322 318 318 323 326 319 317 321 323 323 324 322 321 323 325 326 319 312 315
307 310 310 309 310 312 315 314 315 318 317 315 314 314 314 314 316 315 315 315 315 316 320 313 310 309 309 311 311 313 314 318 323 324 318 317 318 315
311 313 312 310 312 313 313 313 313 310 309 308 309 309 311 312 313 312 312 313 313 314 315 312 308 306 305 304 305 308 311 316 312 309 308 308 311 313
303 307 314 312 312 311 311 308 308 308 306 305 305 305 307 308 305 308 307 307 306 308 309 309 306 306 304 305 306 306 305 304 305 305 306 309 312 313
299 306 304 304 305 306 306 307 305 306 303 301 301 301 302 303 302 304 303 303 302 301 301 303 304 304 303 302 302 301 301 301 302 302 304 307 308 309
303 302 301 301 302 301 301 301 303 302 301 302 302 302 300 300 300 300 300 298 297 298 298 300 301 300 300 299 307 299 299 299 300 302 302 299 300 304
304 303 302 302 301 300 299 299 299 299 301 302 301 300 300 299 298 297 297 297 296 296 296 298 298 297 293 292 298 306 299 299 300 299 299 299 298 300
299 299 300 300 300 299 298 297 298 297 297 297 297 297 296 295 295 295 295 294 294 294 294 296 295 294 293 293 294 297 302 298 297 297 298 299 301 306
298 299 299 298 298 298 298 298 297 297 296 295 295 294 294 294 293 293 293 295 295 292 291 292 294 301 297 297 292 293 296 301 301 297 297 298 297 297
299 298 298 299 298 298 297 296 296 295 294 293 293 292 292 291 291 291 292 291 291 291 291 293 294 294 293 292 291 292 293 296 300 302 303 302 297 295
298 298 298 298 298 297 296 295 294 294 293 292 291 290 290 289 289 290 290 290 290 290 290 290 291 292 292 293 292 291 292 294 295 295 297 302 303 304

GFSNE_sfc_thetae_120.txt.gz
Theta_e
347 344 345 344 341 338 337 333 334 328 330 336 335 341 345 346 349 349 347 346 347 345 342 341 342 344 345 345 345 345 345 345 342 338 337 339 340 343
346 343 344 346 343 344 342 340 338 334 325 335 337 338 343 347 349 351 354 350 347 343 342 339 340 343 343 343 343 342 343 343 341 338 336 336 337 341
345 346 345 344 342 344 345 344 342 339 332 336 339 343 343 345 349 350 352 352 351 344 341 340 340 340 341 340 339 339 340 340 339 337 335 334 336 338
345 345 344 349 345 346 343 342 342 343 339 335 339 342 341 348 349 349 351 354 351 348 341 341 340 339 337 333 334 336 336 335 335 333 333 332 333 336
346 344 344 346 347 343 342 341 343 344 341 340 339 341 341 347 346 348 348 348 351 349 344 342 341 339 336 333 330 330 331 329 329 329 328 328 330 332
347 346 345 345 344 343 343 342 344 342 341 338 338 339 340 345 344 343 342 345 345 352 349 345 342 343 340 336 335 334 329 327 326 324 324 324 325 327
344 341 336 338 337 336 344 341 341 339 339 338 337 338 339 339 339 343 339 341 344 346 345 346 347 348 347 343 343 337 330 328 325 323 321 319 319 321
339 336 330 329 332 333 333 337 336 338 336 336 337 336 336 336 338 337 337 337 335 338 337 341 344 336 341 346 334 329 326 324 323 323 321 322 323 320
338 329 325 325 327 333 333 333 328 330 334 335 329 329 329 332 333 332 333 334 336 329 330 333 334 330 335 341 331 326 324 321 320 319 320 319 318 318
324 320 317 317 322 326 320 318 318 319 321 324 323 326 330 331 331 333 334 333 333 334 324 317 325 328 332 335 329 325 321 319 318 319 319 317 313 312
316 313 312 312 317 322 316 313 314 317 323 324 326 325 323 324 326 325 323 320 318 322 318 320 321 323 328 329 327 322 317 316 316 316 314 313 312 314
311 311 315 312 312 314 315 312 314 313 318 318 318 319 318 317 320 315 315 311 314 312 311 317 308 311 314 321 319 314 313 315 316 312 311 309 308 314
309 310 310 312 311 311 313 314 314 315 316 313 313 312 313 313 312 312 310 311 311 308 310 309 304 304 305 310 312 310 312 314 308 306 306 306 306 309
309 310 312 309 308 309 310 310 311 312 311 309 308 308 307 307 308 309 308 308 312 310 307 305 301 301 300 300 301 307 309 308 304 303 303 306 308 309
312 312 310 307 307 308 310 310 309 306 306 303 302 302 303 302 303 304 304 304 305 305 305 303 301 300 300 299 300 302 300 302 302 301 302 304 306 305
307 310 310 310 309 308 306 306 306 303 302 300 299 299 301 302 302 301 300 301 299 298 300 302 300 300 297 298 299 296 298 296 299 300 301 301 301 301
304 303 303 302 301 301 301 301 300 300 301 301 300 299 299 299 298 298 298 296 294 294 295 298 299 298 298 296 295 296 296 296 298 299 298 297 299 300
300 300 299 300 299 299 298 298 298 300 298 299 297 297 296 296 295 295 295 294 293 294 294 295 295 294 294 294 302 294 294 294 296 297 297 296 296 299
302 299 299 298 297 297 296 296 295 296 297 296 295 295 295 294 293 293 293 293 292 292 292 293 293 292 290 288 294 302 294 294 295 294 295 295 294 297
300 300 299 297 297 296 296 295 295 295 294 294 293 293 293 292 292 291 291 290 291 290 290 290 291 291 289 289 290 293 300 294 294 293 294 296 298 303
297 296 296 296 296 296 295 295 294 293 292 291 291 290 290 290 289 290 290 291 290 289 288 288 290 297 292 293 290 291 294 299 298 295 295 294 294 295
296 297 297 297 296 295 294 294 293 292 290 290 289 289 289 288 288 288 288 287 287 288 289 290 291 291 290 289 289 292 293 294 298 300 301 300 295 292
297 297 297 296 296 295 294 294 294 292 290 289 289 288 288 287 287 287 287 287 288 290 291 291 291 290 290 290 291 292 293 294 294 294 295 301 302 303